Wetterdaten: Sonntag, 04.06.2023
Datum Zeit Temp. 2m Temp +5 cm Feuchte A. Luftdruck Regen Wind Richtung Richtung Sonnenschein UV Solar Taupunkt Windchill Windben
04.06.2023 00:00 11,1 C 6,7 C 63 % 1020,9 hPa 0,0 l/m 3,0 km/h (1 Bft) N-NO 19 0 min 0,0 UV-I 0 W/m 4,3 C 11,1 C 4,8 km/h (1 Bft)
04.06.2023 00:03 11,1 C 6,7 C 62 % 1020,9 hPa 0,0 l/m 1,4 km/h (1 Bft) N-NO 19 0 min 0,0 UV-I 0 W/m 4,1 C 11,1 C 3,2 km/h (1 Bft)
04.06.2023 00:06 11,2 C 6,7 C 62 % 1020,9 hPa 0,0 l/m 1,6 km/h (1 Bft) N-NO 19 0 min 0,0 UV-I 0 W/m 4,2 C 11,2 C 3,2 km/h (1 Bft)
04.06.2023 00:09 11,1 C 6,7 C 62 % 1021,0 hPa 0,0 l/m 3,6 km/h (1 Bft) N-NO 19 0 min 0,0 UV-I 0 W/m 4,1 C 11,1 C 6,4 km/h (2 Bft)
04.06.2023 00:12 10,9 C 6,7 C 63 % 1020,9 hPa 0,0 l/m 4,1 km/h (1 Bft) N-NO 19 0 min 0,0 UV-I 0 W/m 4,1 C 10,9 C 6,4 km/h (2 Bft)
04.06.2023 00:15 10,7 C 6,1 C 64 % 1020,9 hPa 0,0 l/m 2,6 km/h (1 Bft) N-NO 19 0 min 0,0 UV-I 0 W/m 4,2 C 10,7 C 6,4 km/h (2 Bft)
04.06.2023 00:18 10,4 C 6,1 C 65 % 1021,0 hPa 0,0 l/m 3,6 km/h (1 Bft) N-NO 19 0 min 0,0 UV-I 0 W/m 4,1 C 10,4 C 4,8 km/h (1 Bft)
04.06.2023 00:21 10,4 C 6,1 C 65 % 1021,0 hPa 0,0 l/m 4,3 km/h (1 Bft) N-NO 18 0 min 0,0 UV-I 0 W/m 4,1 C 10,4 C 6,4 km/h (2 Bft)
04.06.2023 00:24 10,3 C 6,1 C 65 % 1021,0 hPa 0,0 l/m 4,6 km/h (1 Bft) N-NO 13 0 min 0,0 UV-I 0 W/m 4,0 C 10,3 C 6,4 km/h (2 Bft)
04.06.2023 00:27 9,9 C 5,6 C 66 % 1021,0 hPa 0,0 l/m 4,2 km/h (1 Bft) N-NO 13 0 min 0,0 UV-I 0 W/m 3,9 C 9,9 C 6,4 km/h (2 Bft)
04.06.2023 00:30 9,8 C 5,6 C 67 % 1021,1 hPa 0,0 l/m 2,4 km/h (1 Bft) N-NO 13 0 min 0,0 UV-I 0 W/m 4,0 C 9,8 C 4,8 km/h (1 Bft)
04.06.2023 00:33 9,7 C 5,0 C 68 % 1021,1 hPa 0,0 l/m 1,1 km/h (1 Bft) N-NO 13 0 min 0,0 UV-I 0 W/m 4,1 C 9,7 C 3,2 km/h (1 Bft)
04.06.2023 00:36 9,6 C 5,0 C 67 % 1021,1 hPa 0,0 l/m 1,7 km/h (1 Bft) N-NO 13 0 min 0,0 UV-I 0 W/m 3,8 C 9,6 C 3,2 km/h (1 Bft)
04.06.2023 00:39 9,3 C 5,0 C 69 % 1021,0 hPa 0,0 l/m 1,1 km/h (1 Bft) N-NO 13 0 min 0,0 UV-I 0 W/m 3,9 C 9,3 C 3,2 km/h (1 Bft)
04.06.2023 00:42 9,3 C 5,0 C 69 % 1021,1 hPa 0,0 l/m 0,7 km/h (0 Bft) N-NO 13 0 min 0,0 UV-I 0 W/m 3,9 C 9,3 C 3,2 km/h (1 Bft)
04.06.2023 00:45 9,2 C 5,0 C 70 % 1021,1 hPa 0,0 l/m 1,4 km/h (1 Bft) N-NO 13 0 min 0,0 UV-I 0 W/m 4,0 C 9,2 C 4,8 km/h (1 Bft)
04.06.2023 00:48 8,8 C 5,0 C 71 % 1021,1 hPa 0,0 l/m 0,2 km/h (0 Bft) N-NO 13 0 min 0,0 UV-I 0 W/m 3,8 C 8,8 C 1,6 km/h (1 Bft)
04.06.2023 00:51 8,8 C 4,4 C 71 % 1021,0 hPa 0,0 l/m 0,0 km/h (0 Bft) N-NO 13 0 min 0,0 UV-I 0 W/m 3,8 C 8,8 C 0,0 km/h (0 Bft)
04.06.2023 00:54 8,8 C 4,4 C 71 % 1021,1 hPa 0,0 l/m 0,0 km/h (0 Bft) N-NO 13 0 min 0,0 UV-I 0 W/m 3,8 C 8,8 C 0,0 km/h (0 Bft)
04.06.2023 00:57 8,8 C 5,0 C 71 % 1021,0 hPa 0,0 l/m 0,0 km/h (0 Bft) N-NO 13 0 min 0,0 UV-I 0 W/m 3,8 C 8,8 C 1,6 km/h (1 Bft)
04.06.2023 01:00 8,5 C 4,4 C 72 % 1021,1 hPa 0,0 l/m 0,0 km/h (0 Bft) N-NO 13 0 min 0,0 UV-I 0 W/m 3,7 C 8,5 C 1,6 km/h (1 Bft)
04.06.2023 01:03 8,1 C 4,4 C 73 % 1021,1 hPa 0,0 l/m 0,0 km/h (0 Bft) N-NO 13 0 min 0,0 UV-I 0 W/m 3,6 C 8,1 C 0,0 km/h (0 Bft)
04.06.2023 01:06 8,0 C 4,4 C 74 % 1021,0 hPa 0,0 l/m 0,0 km/h (0 Bft) N-NO 13 0 min 0,0 UV-I 0 W/m 3,7 C 8,0 C 0,0 km/h (0 Bft)
04.06.2023 01:09 8,0 C 4,4 C 74 % 1021,1 hPa 0,0 l/m 0,0 km/h (0 Bft) N-NO 13 0 min 0,0 UV-I 0 W/m 3,7 C 8,0 C 0,0 km/h (0 Bft)
04.06.2023 01:12 8,3 C 4,4 C 73 % 1021,1 hPa 0,0 l/m 0,0 km/h (0 Bft) N-NO 13 0 min 0,0 UV-I 0 W/m 3,8 C 8,3 C 1,6 km/h (1 Bft)
04.06.2023 01:15 8,3 C 4,4 C 72 % 1021,1 hPa 0,0 l/m 0,0 km/h (0 Bft) N-NO 13 0 min 0,0 UV-I 0 W/m 3,6 C 8,3 C 0,0 km/h (0 Bft)
04.06.2023 01:18 8,2 C 4,4 C 73 % 1021,1 hPa 0,0 l/m 0,0 km/h (0 Bft) N-NO 13 0 min 0,0 UV-I 0 W/m 3,7 C 8,2 C 0,0 km/h (0 Bft)
04.06.2023 01:21 8,1 C 3,9 C 73 % 1021,1 hPa 0,0 l/m 0,0 km/h (0 Bft) N-NO 13 0 min 0,0 UV-I 0 W/m 3,6 C 8,1 C 0,0 km/h (0 Bft)
04.06.2023 01:24 7,9 C 3,9 C 73 % 1021,1 hPa 0,0 l/m 0,0 km/h (0 Bft) N-NO 13 0 min 0,0 UV-I 0 W/m 3,4 C 7,9 C 0,0 km/h (0 Bft)
04.06.2023 01:27 7,7 C 3,9 C 74 % 1021,0 hPa 0,0 l/m 0,0 km/h (0 Bft) N-NO 13 0 min 0,0 UV-I 0 W/m 3,4 C 7,7 C 0,0 km/h (0 Bft)
04.06.2023 01:30 7,4 C 3,9 C 75 % 1021,1 hPa 0,0 l/m 0,0 km/h (0 Bft) N-NO 13 0 min 0,0 UV-I 0 W/m 3,3 C 7,4 C 0,0 km/h (0 Bft)
04.06.2023 01:33 7,6 C 3,9 C 75 % 1021,1 hPa 0,0 l/m 0,0 km/h (0 Bft) N-NO 13 0 min 0,0 UV-I 0 W/m 3,5 C 7,6 C 1,6 km/h (1 Bft)
04.06.2023 01:36 7,4 C 3,9 C 75 % 1021,1 hPa 0,0 l/m 0,0 km/h (0 Bft) N-NO 13 0 min 0,0 UV-I 0 W/m 3,3 C 7,4 C 0,0 km/h (0 Bft)
04.06.2023 01:39 7,1 C 3,9 C 75 % 1021,1 hPa 0,0 l/m 0,0 km/h (0 Bft) N-NO 13 0 min 0,0 UV-I 0 W/m 3,0 C 7,1 C 0,0 km/h (0 Bft)
04.06.2023 01:42 7,0 C 3,9 C 76 % 1021,0 hPa 0,0 l/m 0,0 km/h (0 Bft) N-NO 13 0 min 0,0 UV-I 0 W/m 3,1 C 7,0 C 1,6 km/h (1 Bft)
04.06.2023 01:45 7,1 C 3,9 C 76 % 1021,0 hPa 0,0 l/m 0,9 km/h (0 Bft) N-NO 13 0 min 0,0 UV-I 0 W/m 3,2 C 7,1 C 1,6 km/h (1 Bft)
04.06.2023 01:48 6,9 C 3,9 C 76 % 1021,0 hPa 0,0 l/m 0,6 km/h (0 Bft) N-NO 13 0 min 0,0 UV-I 0 W/m 3,0 C 6,9 C 3,2 km/h (1 Bft)
04.06.2023 01:51 7,0 C 3,9 C 76 % 1020,9 hPa 0,0 l/m 0,6 km/h (0 Bft) N-NO 13 0 min 0,0 UV-I 0 W/m 3,1 C 7,0 C 1,6 km/h (1 Bft)
04.06.2023 01:54 6,9 C 3,9 C 76 % 1020,9 hPa 0,0 l/m 0,0 km/h (0 Bft) N-NO 13 0 min 0,0 UV-I 0 W/m 3,0 C 6,9 C 1,6 km/h (1 Bft)
04.06.2023 01:57 6,7 C 3,9 C 76 % 1020,9 hPa 0,0 l/m 0,0 km/h (0 Bft) N-NO 13 0 min 0,0 UV-I 0 W/m 2,8 C 6,7 C 0,0 km/h (0 Bft)
04.06.2023 02:00 6,4 C 3,9 C 78 % 1020,9 hPa 0,0 l/m 0,0 km/h (0 Bft) N-NO 13 0 min 0,0 UV-I 0 W/m 2,8 C 6,4 C 0,0 km/h (0 Bft)
04.06.2023 02:03 6,3 C 3,3 C 78 % 1020,9 hPa 0,0 l/m 0,0 km/h (0 Bft) N-NO 13 0 min 0,0 UV-I 0 W/m 2,8 C 6,3 C 0,0 km/h (0 Bft)
04.06.2023 02:06 6,2 C 3,3 C 78 % 1020,9 hPa 0,0 l/m 0,0 km/h (0 Bft) N-NO 13 0 min 0,0 UV-I 0 W/m 2,7 C 6,2 C 1,6 km/h (1 Bft)
04.06.2023 02:09 6,1 C 3,3 C 78 % 1020,9 hPa 0,0 l/m 0,0 km/h (0 Bft) N-NO 13 0 min 0,0 UV-I 0 W/m 2,6 C 6,1 C 0,0 km/h (0 Bft)
04.06.2023 02:12 6,1 C 3,3 C 79 % 1020,9 hPa 0,0 l/m 0,0 km/h (0 Bft) N-NO 13 0 min 0,0 UV-I 0 W/m 2,7 C 6,1 C 0,0 km/h (0 Bft)
04.06.2023 02:15 6,1 C 3,3 C 79 % 1020,9 hPa 0,0 l/m 0,0 km/h (0 Bft) N-NO 13 0 min 0,0 UV-I 0 W/m 2,7 C 6,1 C 0,0 km/h (0 Bft)
04.06.2023 02:18 6,2 C 3,3 C 78 % 1020,8 hPa 0,0 l/m 0,0 km/h (0 Bft) N-NO 13 0 min 0,0 UV-I 0 W/m 2,7 C 6,2 C 0,0 km/h (0 Bft)
04.06.2023 02:21 6,0 C 2,8 C 78 % 1020,8 hPa 0,0 l/m 0,0 km/h (0 Bft) N-NO 13 0 min 0,0 UV-I 0 W/m 2,5 C 6,0 C 0,0 km/h (0 Bft)
04.06.2023 02:24 5,9 C 2,8 C 79 % 1020,7 hPa 0,0 l/m 0,0 km/h (0 Bft) N-NO 13 0 min 0,0 UV-I 0 W/m 2,5 C 5,9 C 0,0 km/h (0 Bft)
04.06.2023 02:27 6,0 C 3,3 C 79 % 1020,9 hPa 0,0 l/m 0,0 km/h (0 Bft) N-NO 13 0 min 0,0 UV-I 0 W/m 2,6 C 6,0 C 0,0 km/h (0 Bft)
04.06.2023 02:30 5,8 C 3,3 C 78 % 1020,7 hPa 0,0 l/m 0,0 km/h (0 Bft) N-NO 13 0 min 0,0 UV-I 0 W/m 2,3 C 5,8 C 0,0 km/h (0 Bft)
04.06.2023 02:33 5,6 C 2,8 C 79 % 1020,7 hPa 0,0 l/m 0,8 km/h (0 Bft) N-NO 13 0 min 0,0 UV-I 0 W/m 2,3 C 5,6 C 3,2 km/h (1 Bft)
04.06.2023 02:36 5,5 C 2,8 C 80 % 1020,8 hPa 0,0 l/m 1,8 km/h (1 Bft) N-NO 13 0 min 0,0 UV-I 0 W/m 2,3 C 5,5 C 3,2 km/h (1 Bft)
04.06.2023 02:39 5,3 C 2,8 C 80 % 1020,9 hPa 0,0 l/m 2,0 km/h (1 Bft) N-NO 13 0 min 0,0 UV-I 0 W/m 2,1 C 5,3 C 3,2 km/h (1 Bft)
04.06.2023 02:42 5,3 C 2,8 C 81 % 1020,9 hPa 0,0 l/m 1,3 km/h (1 Bft) N-NO 13 0 min 0,0 UV-I 0 W/m 2,3 C 5,3 C 3,2 km/h (1 Bft)
04.06.2023 02:45 5,4 C 2,8 C 81 % 1020,8 hPa 0,0 l/m 0,0 km/h (0 Bft) N-NO 13 0 min 0,0 UV-I 0 W/m 2,4 C 5,4 C 0,0 km/h (0 Bft)
04.06.2023 02:48 5,3 C 2,8 C 80 % 1020,9 hPa 0,0 l/m 0,0 km/h (0 Bft) N-NO 13 0 min 0,0 UV-I 0 W/m 2,1 C 5,3 C 0,0 km/h (0 Bft)
04.06.2023 02:51 5,3 C 2,8 C 81 % 1020,7 hPa 0,0 l/m 0,6 km/h (0 Bft) N-NO 13 0 min 0,0 UV-I 0 W/m 2,3 C 5,3 C 1,6 km/h (1 Bft)
04.06.2023 02:54 5,2 C 2,8 C 81 % 1020,8 hPa 0,0 l/m 0,3 km/h (0 Bft) N-NO 13 0 min 0,0 UV-I 0 W/m 2,2 C 5,2 C 1,6 km/h (1 Bft)
04.06.2023 02:57 5,3 C 2,2 C 81 % 1020,8 hPa 0,0 l/m 1,7 km/h (1 Bft) N-NO 13 0 min 0,0 UV-I 0 W/m 2,3 C 5,3 C 3,2 km/h (1 Bft)
04.06.2023 03:00 5,3 C 2,8 C 81 % 1020,8 hPa 0,0 l/m 1,5 km/h (1 Bft) N-NO 13 0 min 0,0 UV-I 0 W/m 2,3 C 5,3 C 3,2 km/h (1 Bft)
04.06.2023 03:03 5,3 C 2,8 C 81 % 1020,8 hPa 0,0 l/m 0,9 km/h (0 Bft) N-NO 13 0 min 0,0 UV-I 0 W/m 2,3 C 5,3 C 3,2 km/h (1 Bft)
04.06.2023 03:06 5,1 C 2,8 C 80 % 1020,9 hPa 0,0 l/m 0,5 km/h (0 Bft) N-NO 13 0 min 0,0 UV-I 0 W/m 1,9 C 5,1 C 1,6 km/h (1 Bft)
04.06.2023 03:09 4,7 C 2,8 C 81 % 1020,8 hPa 0,0 l/m 0,0 km/h (0 Bft) N-NO 13 0 min 0,0 UV-I 0 W/m 1,7 C 4,7 C 0,0 km/h (0 Bft)
04.06.2023 03:12 4,4 C 2,2 C 81 % 1020,8 hPa 0,0 l/m 0,0 km/h (0 Bft) N-NO 13 0 min 0,0 UV-I 0 W/m 1,4 C 4,4 C 0,0 km/h (0 Bft)
04.06.2023 03:15 4,6 C 2,2 C 83 % 1020,8 hPa 0,0 l/m 0,0 km/h (0 Bft) N-NO 13 0 min 0,0 UV-I 0 W/m 2,0 C 4,6 C 0,0 km/h (0 Bft)
04.06.2023 03:18 4,8 C 2,2 C 82 % 1020,8 hPa 0,0 l/m 0,0 km/h (0 Bft) N-NO 13 0 min 0,0 UV-I 0 W/m 2,0 C 4,8 C 0,0 km/h (0 Bft)
04.06.2023 03:21 4,9 C 2,2 C 82 % 1020,8 hPa 0,0 l/m 0,0 km/h (0 Bft) N-NO 13 0 min 0,0 UV-I 0 W/m 2,1 C 4,9 C 0,0 km/h (0 Bft)
04.06.2023 03:24 4,9 C 2,2 C 81 % 1020,7 hPa 0,0 l/m 0,0 km/h (0 Bft) N-NO 13 0 min 0,0 UV-I 0 W/m 1,9 C 4,9 C 0,0 km/h (0 Bft)
04.06.2023 03:27 4,7 C 2,2 C 82 % 1020,7 hPa 0,0 l/m 0,0 km/h (0 Bft) N-NO 13 0 min 0,0 UV-I 0 W/m 1,9 C 4,7 C 0,0 km/h (0 Bft)
04.06.2023 03:30 4,8 C 2,2 C 82 % 1020,7 hPa 0,0 l/m 0,0 km/h (0 Bft) N-NO 13 0 min 0,0 UV-I 0 W/m 2,0 C 4,8 C 0,0 km/h (0 Bft)
04.06.2023 03:33 4,7 C 2,2 C 82 % 1020,7 hPa 0,0 l/m 0,0 km/h (0 Bft) N-NO 13 0 min 0,0 UV-I 0 W/m 1,9 C 4,7 C 0,0 km/h (0 Bft)
04.06.2023 03:36 4,7 C 2,2 C 82 % 1020,8 hPa 0,0 l/m 0,0 km/h (0 Bft) N-NO 13 0 min 0,0 UV-I 0 W/m 1,9 C 4,7 C 0,0 km/h (0 Bft)
04.06.2023 03:39 4,6 C 1,7 C 82 % 1020,7 hPa 0,0 l/m 0,0 km/h (0 Bft) N-NO 13 0 min 0,0 UV-I 0 W/m 1,8 C 4,6 C 0,0 km/h (0 Bft)
04.06.2023 03:42 4,4 C 1,7 C 82 % 1020,8 hPa 0,0 l/m 0,0 km/h (0 Bft) N-NO 13 0 min 0,0 UV-I 0 W/m 1,6 C 4,4 C 0,0 km/h (0 Bft)
04.06.2023 03:45 4,3 C 2,2 C 83 % 1020,7 hPa 0,0 l/m 0,0 km/h (0 Bft) N-NO 13 0 min 0,0 UV-I 0 W/m 1,7 C 4,3 C 0,0 km/h (0 Bft)
04.06.2023 03:48 4,3 C 2,2 C 83 % 1020,7 hPa 0,0 l/m 0,0 km/h (0 Bft) N-NO 13 0 min 0,0 UV-I 0 W/m 1,7 C 4,3 C 0,0 km/h (0 Bft)
04.06.2023 03:51 4,5 C 2,2 C 83 % 1020,7 hPa 0,0 l/m 0,0 km/h (0 Bft) N-NO 13 0 min 0,0 UV-I 0 W/m 1,9 C 4,5 C 0,0 km/h (0 Bft)
04.06.2023 03:54 4,4 C 2,2 C 83 % 1020,7 hPa 0,0 l/m 0,0 km/h (0 Bft) N-NO 13 0 min 0,0 UV-I 0 W/m 1,8 C 4,4 C 0,0 km/h (0 Bft)
04.06.2023 03:57 4,3 C 2,2 C 83 % 1020,6 hPa 0,0 l/m 0,0 km/h (0 Bft) N-NO 13 0 min 0,0 UV-I 0 W/m 1,7 C 4,3 C 0,0 km/h (0 Bft)
04.06.2023 04:00 4,4 C 2,2 C 83 % 1020,7 hPa 0,0 l/m 0,0 km/h (0 Bft) N-NO 13 0 min 0,0 UV-I 0 W/m 1,8 C 4,4 C 0,0 km/h (0 Bft)
04.06.2023 04:03 4,3 C 1,7 C 83 % 1020,7 hPa 0,0 l/m 0,0 km/h (0 Bft) N-NO 13 0 min 0,0 UV-I 0 W/m 1,7 C 4,3 C 0,0 km/h (0 Bft)
04.06.2023 04:06 4,3 C 2,2 C 83 % 1020,8 hPa 0,0 l/m 0,0 km/h (0 Bft) N-NO 13 0 min 0,0 UV-I 0 W/m 1,7 C 4,3 C 0,0 km/h (0 Bft)
04.06.2023 04:09 4,3 C 1,7 C 84 % 1020,7 hPa 0,0 l/m 0,0 km/h (0 Bft) N-NO 13 0 min 0,0 UV-I 0 W/m 1,8 C 4,3 C 0,0 km/h (0 Bft)
04.06.2023 04:12 4,2 C 2,2 C 84 % 1020,8 hPa 0,0 l/m 0,0 km/h (0 Bft) N-NO 13 0 min 0,0 UV-I 0 W/m 1,7 C 4,2 C 0,0 km/h (0 Bft)
04.06.2023 04:15 4,1 C 1,7 C 84 % 1020,8 hPa 0,0 l/m 0,0 km/h (0 Bft) N-NO 13 0 min 0,0 UV-I 0 W/m 1,6 C 4,1 C 0,0 km/h (0 Bft)
04.06.2023 04:18 3,9 C 1,7 C 84 % 1020,8 hPa 0,0 l/m 0,0 km/h (0 Bft) N-NO 13 0 min 0,0 UV-I 0 W/m 1,4 C 3,9 C 0,0 km/h (0 Bft)
04.06.2023 04:21 3,9 C 1,7 C 85 % 1020,8 hPa 0,0 l/m 0,0 km/h (0 Bft) N-NO 13 0 min 0,0 UV-I 0 W/m 1,6 C 3,9 C 0,0 km/h (0 Bft)
04.06.2023 04:24 4,2 C 1,7 C 85 % 1020,9 hPa 0,0 l/m 0,0 km/h (0 Bft) N-NO 13 0 min 0,0 UV-I 0 W/m 1,9 C 4,2 C 0,0 km/h (0 Bft)
04.06.2023 04:27 4,1 C 1,7 C 84 % 1020,9 hPa 0,0 l/m 0,0 km/h (0 Bft) N-NO 13 0 min 0,0 UV-I 0 W/m 1,6 C 4,1 C 0,0 km/h (0 Bft)
04.06.2023 04:30 4,0 C 1,7 C 85 % 1020,9 hPa 0,0 l/m 0,0 km/h (0 Bft) N-NO 13 0 min 0,0 UV-I 0 W/m 1,7 C 4,0 C 0,0 km/h (0 Bft)
04.06.2023 04:33 3,9 C 1,7 C 85 % 1020,8 hPa 0,0 l/m 0,0 km/h (0 Bft) N-NO 13 0 min 0,0 UV-I 0 W/m 1,6 C 3,9 C 0,0 km/h (0 Bft)
04.06.2023 04:36 3,9 C 1,7 C 85 % 1020,8 hPa 0,0 l/m 0,0 km/h (0 Bft) N-NO 13 0 min 0,0 UV-I 0 W/m 1,6 C 3,9 C 0,0 km/h (0 Bft)
04.06.2023 04:39 3,9 C 1,7 C 85 % 1020,9 hPa 0,0 l/m 0,0 km/h (0 Bft) N-NO 13 0 min 0,0 UV-I 0 W/m 1,6 C 3,9 C 0,0 km/h (0 Bft)
04.06.2023 04:42 3,8 C 1,7 C 84 % 1020,9 hPa 0,0 l/m 0,0 km/h (0 Bft) N-NO 13 0 min 0,0 UV-I 0 W/m 1,4 C 3,8 C 0,0 km/h (0 Bft)
04.06.2023 04:45 3,8 C 1,7 C 84 % 1020,8 hPa 0,0 l/m 0,0 km/h (0 Bft) N-NO 13 0 min 0,0 UV-I 0 W/m 1,4 C 3,8 C 0,0 km/h (0 Bft)
04.06.2023 04:48 3,8 C 1,7 C 84 % 1020,9 hPa 0,0 l/m 0,0 km/h (0 Bft) N-NO 13 0 min 0,0 UV-I 0 W/m 1,4 C 3,8 C 0,0 km/h (0 Bft)
04.06.2023 04:51 3,8 C 1,7 C 84 % 1020,8 hPa 0,0 l/m 0,0 km/h (0 Bft) N-NO 13 0 min 0,0 UV-I 0 W/m 1,4 C 3,8 C 0,0 km/h (0 Bft)
04.06.2023 04:54 3,8 C 1,7 C 84 % 1020,8 hPa 0,0 l/m 0,0 km/h (0 Bft) N-NO 13 0 min 0,0 UV-I 0 W/m 1,4 C 3,8 C 0,0 km/h (0 Bft)
04.06.2023 04:57 3,7 C 1,7 C 84 % 1020,9 hPa 0,0 l/m 0,0 km/h (0 Bft) N-NO 13 0 min 0,0 UV-I 0 W/m 1,3 C 3,7 C 0,0 km/h (0 Bft)
04.06.2023 05:00 3,7 C 1,7 C 85 % 1020,9 hPa 0,0 l/m 0,0 km/h (0 Bft) N-NO 13 0 min 0,0 UV-I 0 W/m 1,4 C 3,7 C 0,0 km/h (0 Bft)
04.06.2023 05:03 3,6 C 1,7 C 85 % 1020,9 hPa 0,0 l/m 0,0 km/h (0 Bft) N-NO 13 0 min 0,0 UV-I 0 W/m 1,3 C 3,6 C 0,0 km/h (0 Bft)
04.06.2023 05:06 3,5 C 1,1 C 85 % 1020,9 hPa 0,0 l/m 0,0 km/h (0 Bft) N-NO 13 0 min 0,0 UV-I 0 W/m 1,2 C 3,5 C 0,0 km/h (0 Bft)
04.06.2023 05:09 3,4 C 1,7 C 85 % 1021,0 hPa 0,0 l/m 0,0 km/h (0 Bft) N-NO 13 0 min 0,0 UV-I 0 W/m 1,1 C 3,4 C 0,0 km/h (0 Bft)
04.06.2023 05:12 3,2 C 1,1 C 85 % 1021,0 hPa 0,0 l/m 0,0 km/h (0 Bft) N-NO 13 0 min 0,0 UV-I 0 W/m 0,9 C 3,2 C 0,0 km/h (0 Bft)
04.06.2023 05:15 3,0 C 1,1 C 85 % 1020,9 hPa 0,0 l/m 0,0 km/h (0 Bft) N-NO 13 0 min 0,0 UV-I 0 W/m 0,7 C 3,0 C 0,0 km/h (0 Bft)
04.06.2023 05:18 2,9 C 1,1 C 86 % 1020,9 hPa 0,0 l/m 0,0 km/h (0 Bft) N-NO 13 0 min 0,0 UV-I 0 W/m 0,8 C 2,9 C 0,0 km/h (0 Bft)
04.06.2023 05:21 2,9 C 1,1 C 86 % 1020,9 hPa 0,0 l/m 0,0 km/h (0 Bft) N-NO 13 0 min 0,0 UV-I 0 W/m 0,8 C 2,9 C 0,0 km/h (0 Bft)
04.06.2023 05:24 3,1 C 1,1 C 87 % 1020,9 hPa 0,0 l/m 0,0 km/h (0 Bft) N-NO 13 0 min 0,0 UV-I 0 W/m 1,2 C 3,1 C 0,0 km/h (0 Bft)
04.06.2023 05:27 3,1 C 1,1 C 86 % 1020,9 hPa 0,0 l/m 0,0 km/h (0 Bft) N-NO 13 0 min 0,0 UV-I 0 W/m 1,0 C 3,1 C 0,0 km/h (0 Bft)
04.06.2023 05:30 2,9 C 1,1 C 86 % 1020,8 hPa 0,0 l/m 0,0 km/h (0 Bft) N-NO 13 0 min 0,0 UV-I 4 W/m 0,8 C 2,9 C 0,0 km/h (0 Bft)
04.06.2023 05:33 2,9 C 1,1 C 86 % 1020,9 hPa 0,0 l/m 0,0 km/h (0 Bft) N-NO 13 0 min 0,0 UV-I 5 W/m 0,8 C 2,9 C 0,0 km/h (0 Bft)
04.06.2023 05:36 2,9 C 1,1 C 87 % 1020,9 hPa 0,0 l/m 0,0 km/h (0 Bft) N-NO 13 0 min 0,0 UV-I 7 W/m 1,0 C 2,9 C 0,0 km/h (0 Bft)
04.06.2023 05:39 2,8 C 1,1 C 86 % 1020,9 hPa 0,0 l/m 0,0 km/h (0 Bft) N-NO 13 0 min 0,0 UV-I 8 W/m 0,7 C 2,8 C 0,0 km/h (0 Bft)
04.06.2023 05:42 2,8 C 1,1 C 87 % 1020,8 hPa 0,0 l/m 0,0 km/h (0 Bft) N-NO 13 0 min 0,0 UV-I 10 W/m 0,9 C 2,8 C 0,0 km/h (0 Bft)
04.06.2023 05:45 2,8 C 1,1 C 87 % 1020,8 hPa 0,0 l/m 0,0 km/h (0 Bft) N-NO 13 0 min 0,0 UV-I 11 W/m 0,9 C 2,8 C 0,0 km/h (0 Bft)
04.06.2023 05:48 2,8 C 1,7 C 87 % 1020,8 hPa 0,0 l/m 0,0 km/h (0 Bft) N-NO 13 0 min 0,0 UV-I 12 W/m 0,9 C 2,8 C 0,0 km/h (0 Bft)
04.06.2023 05:51 2,7 C 1,7 C 87 % 1021,0 hPa 0,0 l/m 0,0 km/h (0 Bft) N-NO 13 0 min 0,0 UV-I 14 W/m 0,8 C 2,7 C 0,0 km/h (0 Bft)
04.06.2023 05:54 2,7 C 1,1 C 87 % 1021,0 hPa 0,0 l/m 0,0 km/h (0 Bft) N-NO 13 0 min 0,0 UV-I 16 W/m 0,8 C 2,7 C 0,0 km/h (0 Bft)
04.06.2023 05:57 2,8 C 1,7 C 87 % 1020,9 hPa 0,0 l/m 0,0 km/h (0 Bft) N-NO 13 0 min 0,0 UV-I 18 W/m 0,9 C 2,8 C 0,0 km/h (0 Bft)
04.06.2023 06:00 2,9 C 1,7 C 87 % 1021,0 hPa 0,0 l/m 0,0 km/h (0 Bft) N-NO 13 0 min 0,0 UV-I 19 W/m 1,0 C 2,9 C 0,0 km/h (0 Bft)
04.06.2023 06:03 2,8 C 1,7 C 86 % 1021,0 hPa 0,0 l/m 0,0 km/h (0 Bft) N-NO 13 0 min 0,0 UV-I 20 W/m 0,7 C 2,8 C 0,0 km/h (0 Bft)
04.06.2023 06:06 2,8 C 1,7 C 87 % 1020,9 hPa 0,0 l/m 0,0 km/h (0 Bft) N-NO 13 0 min 0,0 UV-I 21 W/m 0,9 C 2,8 C 0,0 km/h (0 Bft)
04.06.2023 06:09 2,8 C 1,7 C 86 % 1020,9 hPa 0,0 l/m 0,0 km/h (0 Bft) N-NO 13 0 min 0,0 UV-I 23 W/m 0,7 C 2,8 C 0,0 km/h (0 Bft)
04.06.2023 06:12 2,8 C 1,7 C 87 % 1020,9 hPa 0,0 l/m 0,0 km/h (0 Bft) N-NO 13 0 min 0,0 UV-I 25 W/m 0,9 C 2,8 C 0,0 km/h (0 Bft)
04.06.2023 06:15 2,9 C 1,7 C 87 % 1020,9 hPa 0,0 l/m 0,0 km/h (0 Bft) N-NO 13 0 min 0,0 UV-I 28 W/m 1,0 C 2,9 C 0,0 km/h (0 Bft)
04.06.2023 06:18 3,2 C 2,2 C 87 % 1020,9 hPa 0,0 l/m 0,0 km/h (0 Bft) N-NO 13 0 min 0,0 UV-I 31 W/m 1,2 C 3,2 C 0,0 km/h (0 Bft)
04.06.2023 06:21 3,5 C 2,2 C 87 % 1020,8 hPa 0,0 l/m 0,0 km/h (0 Bft) N-NO 13 0 min 0,0 UV-I 36 W/m 1,5 C 3,5 C 0,0 km/h (0 Bft)
04.06.2023 06:24 3,4 C 2,2 C 86 % 1020,9 hPa 0,0 l/m 0,0 km/h (0 Bft) N-NO 13 0 min 0,0 UV-I 40 W/m 1,3 C 3,4 C 0,0 km/h (0 Bft)
04.06.2023 06:27 3,4 C 2,2 C 86 % 1021,0 hPa 0,0 l/m 0,0 km/h (0 Bft) N-NO 13 0 min 0,0 UV-I 46 W/m 1,3 C 3,4 C 0,0 km/h (0 Bft)
04.06.2023 06:30 3,6 C 2,8 C 86 % 1021,0 hPa 0,0 l/m 0,0 km/h (0 Bft) N-NO 13 0 min 0,0 UV-I 50 W/m 1,5 C 3,6 C 0,0 km/h (0 Bft)
04.06.2023 06:33 3,7 C 2,8 C 85 % 1020,9 hPa 0,0 l/m 0,0 km/h (0 Bft) N-NO 13 0 min 0,0 UV-I 55 W/m 1,4 C 3,7 C 0,0 km/h (0 Bft)
04.06.2023 06:36 3,8 C 3,3 C 86 % 1020,9 hPa 0,0 l/m 0,0 km/h (0 Bft) N-NO 13 0 min 0,0 UV-I 60 W/m 1,7 C 3,8 C 0,0 km/h (0 Bft)
04.06.2023 06:39 3,9 C 3,3 C 85 % 1020,9 hPa 0,0 l/m 0,0 km/h (0 Bft) N-NO 13 0 min 0,0 UV-I 66 W/m 1,6 C 3,9 C 0,0 km/h (0 Bft)
04.06.2023 06:42 4,0 C 3,3 C 85 % 1020,9 hPa 0,0 l/m 0,0 km/h (0 Bft) N-NO 13 0 min 0,0 UV-I 70 W/m 1,7 C 4,0 C 0,0 km/h (0 Bft)
04.06.2023 06:45 4,1 C 3,3 C 85 % 1021,0 hPa 0,0 l/m 0,0 km/h (0 Bft) N-NO 13 0 min 0,0 UV-I 76 W/m 1,8 C 4,1 C 0,0 km/h (0 Bft)
04.06.2023 06:48 4,3 C 3,3 C 85 % 1021,0 hPa 0,0 l/m 0,0 km/h (0 Bft) N-NO 13 0 min 0,0 UV-I 81 W/m 2,0 C 4,3 C 0,0 km/h (0 Bft)
04.06.2023 06:51 4,4 C 3,9 C 85 % 1020,9 hPa 0,0 l/m 0,0 km/h (0 Bft) N-NO 13 0 min 0,0 UV-I 87 W/m 2,1 C 4,4 C 0,0 km/h (0 Bft)
04.06.2023 06:54 4,8 C 3,9 C 84 % 1020,9 hPa 0,0 l/m 0,0 km/h (0 Bft) N-NO 13 0 min 0,0 UV-I 93 W/m 2,3 C 4,8 C 0,0 km/h (0 Bft)
04.06.2023 06:57 4,9 C 4,4 C 83 % 1021,0 hPa 0,0 l/m 0,0 km/h (0 Bft) N-NO 13 0 min 0,0 UV-I 99 W/m 2,3 C 4,9 C 0,0 km/h (0 Bft)
04.06.2023 07:00 5,2 C 5,0 C 83 % 1021,0 hPa 0,0 l/m 0,0 km/h (0 Bft) N-NO 13 0 min 0,0 UV-I 106 W/m 2,6 C 5,2 C 0,0 km/h (0 Bft)
04.06.2023 07:01 5,2 C 5,0 C 83 % 1020,9 hPa 0,0 l/m 0,0 km/h (0 Bft) N 0 0 min 0,3 UV-I 113 W/m 2,6 C 5,2 C 0,0 km/h (0 Bft)
04.06.2023 07:03 5,4 C 5,6 C 83 % 1021,0 hPa 0,0 l/m 0,0 km/h (0 Bft) N-NO 13 0 min 0,5 UV-I 115 W/m 2,7 C 5,4 C 0,0 km/h (0 Bft)
04.06.2023 07:06 5,8 C 6,1 C 83 % 1020,9 hPa 0,0 l/m 0,0 km/h (0 Bft) N-NO 13 0 min 0,5 UV-I 121 W/m 3,1 C 5,8 C 0,0 km/h (0 Bft)
04.06.2023 07:09 6,0 C 6,7 C 82 % 1020,9 hPa 0,0 l/m 0,0 km/h (0 Bft) N-NO 13 0 min 0,5 UV-I 125 W/m 3,2 C 6,0 C 0,0 km/h (0 Bft)
04.06.2023 07:12 6,1 C 7,2 C 82 % 1021,1 hPa 0,0 l/m 0,0 km/h (0 Bft) N-NO 13 0 min 0,5 UV-I 126 W/m 3,3 C 6,1 C 0,0 km/h (0 Bft)
04.06.2023 07:15 6,4 C 7,8 C 81 % 1021,0 hPa 0,0 l/m 0,0 km/h (0 Bft) N-NO 13 0 min 0,6 UV-I 125 W/m 3,4 C 6,4 C 0,0 km/h (0 Bft)
04.06.2023 07:18 6,6 C 8,9 C 80 % 1021,1 hPa 0,0 l/m 0,0 km/h (0 Bft) N-NO 13 0 min 0,6 UV-I 129 W/m 3,4 C 6,6 C 0,0 km/h (0 Bft)
04.06.2023 07:21 6,9 C 9,4 C 80 % 1021,1 hPa 0,0 l/m 0,0 km/h (0 Bft) N-NO 13 0 min 0,6 UV-I 139 W/m 3,7 C 6,9 C 0,0 km/h (0 Bft)
04.06.2023 07:24 7,2 C 9,4 C 80 % 1021,1 hPa 0,0 l/m 0,0 km/h (0 Bft) N-NO 13 3 min 0,7 UV-I 156 W/m 4,0 C 7,2 C 0,0 km/h (0 Bft)
04.06.2023 07:27 7,3 C 8,9 C 80 % 1021,1 hPa 0,0 l/m 0,0 km/h (0 Bft) N-NO 13 3 min 0,7 UV-I 173 W/m 4,1 C 7,3 C 0,0 km/h (0 Bft)
04.06.2023 07:30 7,6 C 8,9 C 79 % 1021,1 hPa 0,0 l/m 0,0 km/h (0 Bft) N-NO 13 3 min 0,7 UV-I 184 W/m 4,2 C 7,6 C 0,0 km/h (0 Bft)
04.06.2023 07:33 7,9 C 9,4 C 80 % 1021,0 hPa 0,0 l/m 0,0 km/h (0 Bft) N-NO 13 3 min 0,8 UV-I 193 W/m 4,7 C 7,9 C 0,0 km/h (0 Bft)
04.06.2023 07:36 8,3 C 9,4 C 80 % 1021,1 hPa 0,0 l/m 0,0 km/h (0 Bft) N-NO 13 3 min 0,8 UV-I 201 W/m 5,1 C 8,3 C 0,0 km/h (0 Bft)
04.06.2023 07:39 9,0 C 9,4 C 82 % 1021,2 hPa 0,0 l/m 0,0 km/h (0 Bft) N-NO 13 3 min 0,9 UV-I 209 W/m 6,1 C 9,0 C 0,0 km/h (0 Bft)
04.06.2023 07:42 9,4 C 10,0 C 80 % 1021,2 hPa 0,0 l/m 0,0 km/h (0 Bft) N-NO 13 3 min 0,9 UV-I 219 W/m 6,1 C 9,4 C 0,0 km/h (0 Bft)
04.06.2023 07:45 10,2 C 10,6 C 76 % 1021,2 hPa 0,0 l/m 1,7 km/h (1 Bft) N-NO 13 3 min 0,9 UV-I 229 W/m 6,2 C 10,2 C 4,8 km/h (1 Bft)
04.06.2023 07:48 10,6 C 10,6 C 74 % 1021,2 hPa 0,0 l/m 1,8 km/h (1 Bft) N-NO 13 3 min 1,0 UV-I 237 W/m 6,2 C 10,6 C 3,2 km/h (1 Bft)
04.06.2023 07:51 10,8 C 10,6 C 71 % 1021,2 hPa 0,0 l/m 3,3 km/h (1 Bft) N-NO 13 3 min 1,0 UV-I 246 W/m 5,8 C 10,8 C 4,8 km/h (1 Bft)
04.06.2023 07:54 11,3 C 11,1 C 70 % 1021,2 hPa 0,0 l/m 3,2 km/h (1 Bft) N-NO 13 3 min 1,1 UV-I 255 W/m 6,0 C 11,3 C 4,8 km/h (1 Bft)
04.06.2023 07:57 11,5 C 11,7 C 68 % 1021,2 hPa 0,0 l/m 3,2 km/h (1 Bft) N-NO 14 3 min 1,1 UV-I 263 W/m 5,8 C 11,5 C 4,8 km/h (1 Bft)
04.06.2023 08:00 11,7 C 12,2 C 69 % 1021,3 hPa 0,0 l/m 2,2 km/h (1 Bft) N-NO 22 3 min 1,2 UV-I 272 W/m 6,2 C 11,7 C 4,8 km/h (1 Bft)
04.06.2023 08:03 11,9 C 12,8 C 66 % 1021,3 hPa 0,0 l/m 3,3 km/h (1 Bft) N-NO 22 3 min 1,2 UV-I 281 W/m 5,8 C 11,9 C 4,8 km/h (1 Bft)
04.06.2023 08:06 12,1 C 13,3 C 65 % 1021,3 hPa 0,0 l/m 3,1 km/h (1 Bft) N-NO 30 3 min 1,3 UV-I 290 W/m 5,7 C 12,1 C 6,4 km/h (2 Bft)
04.06.2023 08:09 12,3 C 13,9 C 66 % 1021,3 hPa 0,0 l/m 3,7 km/h (1 Bft) N-NO 30 3 min 1,3 UV-I 298 W/m 6,1 C 12,3 C 6,4 km/h (2 Bft)
04.06.2023 08:12 12,5 C 13,3 C 65 % 1021,3 hPa 0,0 l/m 5,5 km/h (1 Bft) NO 37 3 min 1,3 UV-I 307 W/m 6,1 C 12,5 C 6,4 km/h (2 Bft)
04.06.2023 08:15 12,6 C 13,3 C 63 % 1021,3 hPa 0,0 l/m 4,9 km/h (1 Bft) NO 36 3 min 1,4 UV-I 315 W/m 5,7 C 12,6 C 6,4 km/h (2 Bft)
04.06.2023 08:18 12,8 C 13,3 C 64 % 1021,4 hPa 0,0 l/m 2,8 km/h (1 Bft) NO 36 3 min 1,4 UV-I 324 W/m 6,2 C 12,8 C 4,8 km/h (1 Bft)
04.06.2023 08:21 12,9 C 13,3 C 63 % 1021,3 hPa 0,0 l/m 4,0 km/h (1 Bft) NO 34 3 min 1,5 UV-I 330 W/m 6,0 C 12,9 C 6,4 km/h (2 Bft)
04.06.2023 08:24 13,1 C 13,3 C 63 % 1021,3 hPa 0,0 l/m 5,6 km/h (1 Bft) N-NO 24 3 min 1,5 UV-I 338 W/m 6,2 C 13,1 C 8,0 km/h (2 Bft)
04.06.2023 08:27 13,2 C 13,3 C 62 % 1021,3 hPa 0,0 l/m 5,5 km/h (1 Bft) N-NO 17 3 min 1,5 UV-I 346 W/m 6,1 C 13,2 C 8,0 km/h (2 Bft)
04.06.2023 08:30 13,2 C 13,9 C 62 % 1021,3 hPa 0,0 l/m 4,5 km/h (1 Bft) N-NO 30 3 min 1,6 UV-I 354 W/m 6,1 C 13,2 C 6,4 km/h (2 Bft)
04.06.2023 08:33 13,4 C 13,9 C 63 % 1021,4 hPa 0,0 l/m 4,2 km/h (1 Bft) NO 52 3 min 1,6 UV-I 362 W/m 6,5 C 13,4 C 8,0 km/h (2 Bft)
04.06.2023 08:36 13,5 C 14,4 C 61 % 1021,4 hPa 0,0 l/m 4,9 km/h (1 Bft) NO 49 3 min 1,7 UV-I 370 W/m 6,1 C 13,5 C 6,4 km/h (2 Bft)
04.06.2023 08:39 13,6 C 15,0 C 63 % 1021,4 hPa 0,0 l/m 4,0 km/h (1 Bft) NO 51 3 min 1,7 UV-I 378 W/m 6,7 C 13,6 C 6,4 km/h (2 Bft)
04.06.2023 08:42 13,8 C 15,6 C 62 % 1021,4 hPa 0,0 l/m 4,6 km/h (1 Bft) NO 50 3 min 1,8 UV-I 386 W/m 6,6 C 13,8 C 6,4 km/h (2 Bft)
04.06.2023 08:45 13,9 C 15,6 C 61 % 1021,4 hPa 0,0 l/m 7,8 km/h (2 Bft) NO 47 3 min 1,8 UV-I 394 W/m 6,5 C 13,1 C 12,9 km/h (3 Bft)
04.06.2023 08:48 14,1 C 16,1 C 61 % 1021,4 hPa 0,0 l/m 8,3 km/h (2 Bft) NO 47 3 min 1,9 UV-I 402 W/m 6,7 C 13,0 C 14,5 km/h (3 Bft)
04.06.2023 08:51 14,2 C 16,1 C 59 % 1021,3 hPa 0,0 l/m 8,3 km/h (2 Bft) NO 55 3 min 1,9 UV-I 409 W/m 6,3 C 13,1 C 16,1 km/h (3 Bft)
04.06.2023 08:54 14,4 C 16,1 C 59 % 1021,4 hPa 0,0 l/m 10,2 km/h (2 Bft) NO 51 3 min 2,0 UV-I 418 W/m 6,5 C 12,4 C 14,5 km/h (3 Bft)
04.06.2023 08:57 14,4 C 16,1 C 58 % 1021,4 hPa 0,0 l/m 9,5 km/h (2 Bft) O-NO 67 3 min 2,0 UV-I 425 W/m 6,2 C 12,7 C 16,1 km/h (3 Bft)
04.06.2023 09:00 14,6 C 16,7 C 58 % 1021,3 hPa 0,0 l/m 9,0 km/h (2 Bft) O 87 3 min 2,1 UV-I 433 W/m 6,4 C 13,2 C 14,5 km/h (3 Bft)
04.06.2023 09:03 14,8 C 16,7 C 56 % 1021,4 hPa 0,0 l/m 7,8 km/h (2 Bft) O-NO 65 3 min 2,1 UV-I 441 W/m 6,1 C 14,0 C 14,5 km/h (3 Bft)
04.06.2023 09:06 14,9 C 16,7 C 58 % 1021,5 hPa 0,0 l/m 9,1 km/h (2 Bft) O-NO 70 3 min 2,2 UV-I 450 W/m 6,7 C 13,4 C 17,7 km/h (3 Bft)
04.06.2023 09:09 15,0 C 16,1 C 55 % 1021,4 hPa 0,0 l/m 11,0 km/h (2 Bft) NO 54 3 min 2,2 UV-I 460 W/m 6,0 C 12,7 C 17,7 km/h (3 Bft)
04.06.2023 09:12 15,2 C 16,1 C 57 % 1021,4 hPa 0,0 l/m 12,1 km/h (2 Bft) N-NO 32 3 min 2,3 UV-I 467 W/m 6,7 C 12,5 C 19,3 km/h (3 Bft)
04.06.2023 09:15 15,2 C 16,7 C 56 % 1021,5 hPa 0,0 l/m 12,5 km/h (3 Bft) O-NO 75 3 min 2,3 UV-I 477 W/m 6,5 C 12,3 C 19,3 km/h (3 Bft)
04.06.2023 09:18 15,2 C 16,7 C 55 % 1021,5 hPa 0,0 l/m 12,6 km/h (3 Bft) NO 46 3 min 2,4 UV-I 485 W/m 6,2 C 12,3 C 20,9 km/h (4 Bft)
04.06.2023 09:21 15,4 C 17,2 C 55 % 1021,5 hPa 0,0 l/m 10,1 km/h (2 Bft) NO 38 3 min 2,5 UV-I 493 W/m 6,4 C 13,5 C 17,7 km/h (3 Bft)
04.06.2023 09:24 15,4 C 17,2 C 55 % 1021,4 hPa 0,0 l/m 11,8 km/h (2 Bft) NO 36 3 min 2,5 UV-I 500 W/m 6,4 C 12,8 C 17,7 km/h (3 Bft)
04.06.2023 09:27 15,4 C 17,2 C 55 % 1021,5 hPa 0,0 l/m 8,6 km/h (2 Bft) NO 54 3 min 2,6 UV-I 507 W/m 6,4 C 14,2 C 14,5 km/h (3 Bft)
04.06.2023 09:30 15,6 C 17,8 C 56 % 1021,5 hPa 0,0 l/m 8,2 km/h (2 Bft) N 5 3 min 2,6 UV-I 515 W/m 6,9 C 14,6 C 14,5 km/h (3 Bft)
04.06.2023 09:33 15,8 C 18,3 C 55 % 1021,5 hPa 0,0 l/m 10,1 km/h (2 Bft) O-NO 62 3 min 2,7 UV-I 519 W/m 6,8 C 14,0 C 17,7 km/h (3 Bft)
04.06.2023 09:36 15,9 C 17,8 C 54 % 1021,5 hPa 0,0 l/m 11,4 km/h (2 Bft) N-NO 28 3 min 2,7 UV-I 519 W/m 6,6 C 13,5 C 17,7 km/h (3 Bft)
04.06.2023 09:39 15,9 C 17,2 C 55 % 1021,3 hPa 0,0 l/m 14,4 km/h (3 Bft) N-NO 19 3 min 2,8 UV-I 519 W/m 6,9 C 12,5 C 19,3 km/h (3 Bft)
04.06.2023 09:42 16,1 C 17,2 C 55 % 1021,3 hPa 0,0 l/m 12,8 km/h (3 Bft) NO 48 3 min 2,9 UV-I 517 W/m 7,1 C 13,2 C 20,9 km/h (4 Bft)
04.06.2023 09:45 16,3 C 16,7 C 53 % 1021,4 hPa 0,0 l/m 14,1 km/h (3 Bft) N 350 3 min 2,9 UV-I 513 W/m 6,7 C 13,0 C 22,5 km/h (4 Bft)
04.06.2023 09:48 16,3 C 16,7 C 52 % 1021,4 hPa 0,0 l/m 13,4 km/h (3 Bft) NO 51 3 min 3,0 UV-I 505 W/m 6,4 C 13,3 C 17,7 km/h (3 Bft)
04.06.2023 09:51 16,4 C 16,7 C 55 % 1021,4 hPa 0,0 l/m 9,1 km/h (2 Bft) N-NO 25 3 min 3,0 UV-I 500 W/m 7,3 C 15,1 C 14,5 km/h (3 Bft)
04.06.2023 09:54 16,6 C 16,7 C 53 % 1021,4 hPa 0,0 l/m 9,6 km/h (2 Bft) N-NO 28 3 min 3,1 UV-I 492 W/m 7,0 C 15,1 C 16,1 km/h (3 Bft)
04.06.2023 09:57 16,8 C 17,8 C 51 % 1021,4 hPa 0,0 l/m 6,8 km/h (2 Bft) N-NO 30 3 min 3,1 UV-I 486 W/m 6,6 C 16,6 C 12,9 km/h (3 Bft)
04.06.2023 10:00 17,1 C 18,3 C 50 % 1021,5 hPa 0,0 l/m 9,7 km/h (2 Bft) NO 49 3 min 3,2 UV-I 483 W/m 6,6 C 15,6 C 17,7 km/h (3 Bft)
04.06.2023 10:03 17,2 C 18,9 C 54 % 1021,5 hPa 0,0 l/m 10,9 km/h (2 Bft) N 360 3 min 3,3 UV-I 480 W/m 7,8 C 15,2 C 17,7 km/h (3 Bft)
04.06.2023 10:06 17,3 C 18,9 C 53 % 1021,5 hPa 0,0 l/m 11,1 km/h (2 Bft) O-NO 57 3 min 3,3 UV-I 478 W/m 7,6 C 15,2 C 17,7 km/h (3 Bft)
04.06.2023 10:09 17,3 C 18,3 C 49 % 1021,4 hPa 0,0 l/m 11,0 km/h (2 Bft) NO 53 3 min 3,4 UV-I 482 W/m 6,5 C 15,3 C 19,3 km/h (3 Bft)
04.06.2023 10:12 17,2 C 17,8 C 50 % 1021,5 hPa 0,0 l/m 11,5 km/h (2 Bft) O-NO 62 3 min 3,5 UV-I 486 W/m 6,7 C 15,0 C 16,1 km/h (3 Bft)
04.06.2023 10:15 17,2 C 17,8 C 49 % 1021,5 hPa 0,0 l/m 14,7 km/h (3 Bft) N-NO 26 3 min 3,5 UV-I 496 W/m 6,4 C 13,9 C 24,1 km/h (4 Bft)
04.06.2023 10:18 17,3 C 17,2 C 49 % 1021,4 hPa 0,0 l/m 13,1 km/h (3 Bft) N 5 3 min 3,6 UV-I 509 W/m 6,5 C 14,6 C 17,7 km/h (3 Bft)
04.06.2023 10:21 17,4 C 17,8 C 49 % 1021,5 hPa 0,0 l/m 13,0 km/h (3 Bft) NO 38 3 min 3,6 UV-I 527 W/m 6,6 C 14,7 C 20,9 km/h (4 Bft)
04.06.2023 10:24 17,6 C 18,3 C 48 % 1021,5 hPa 0,0 l/m 12,0 km/h (2 Bft) O-NO 63 3 min 3,7 UV-I 546 W/m 6,5 C 15,3 C 22,5 km/h (4 Bft)
04.06.2023 10:27 17,7 C 18,3 C 48 % 1021,5 hPa 0,0 l/m 16,3 km/h (3 Bft) NO 38 3 min 3,8 UV-I 568 W/m 6,6 C 14,1 C 25,7 km/h (4 Bft)
04.06.2023 10:30 17,8 C 18,9 C 47 % 1021,5 hPa 0,0 l/m 15,8 km/h (3 Bft) NO 53 3 min 3,8 UV-I 593 W/m 6,3 C 14,4 C 24,1 km/h (4 Bft)
04.06.2023 10:33 17,7 C 18,9 C 45 % 1021,4 hPa 0,0 l/m 18,2 km/h (3 Bft) N-NO 32 3 min 3,9 UV-I 619 W/m 5,6 C 13,6 C 25,7 km/h (4 Bft)
04.06.2023 10:36 17,8 C 20,0 C 46 % 1021,4 hPa 0,0 l/m 16,9 km/h (3 Bft) N-NO 19 3 min 4,0 UV-I 639 W/m 6,0 C 14,1 C 22,5 km/h (4 Bft)
04.06.2023 10:39 17,9 C 20,0 C 45 % 1021,5 hPa 0,0 l/m 17,6 km/h (3 Bft) NO 49 3 min 4,0 UV-I 660 W/m 5,8 C 14,0 C 32,2 km/h (5 Bft)
04.06.2023 10:42 18,0 C 20,0 C 45 % 1021,4 hPa 0,0 l/m 13,8 km/h (3 Bft) NO 53 3 min 4,1 UV-I 676 W/m 5,9 C 15,2 C 20,9 km/h (4 Bft)
04.06.2023 10:45 18,3 C 20,6 C 44 % 1021,4 hPa 0,0 l/m 10,3 km/h (2 Bft) NO 42 3 min 4,1 UV-I 687 W/m 5,8 C 16,7 C 19,3 km/h (3 Bft)
04.06.2023 10:48 18,4 C 20,6 C 46 % 1021,5 hPa 0,0 l/m 15,2 km/h (3 Bft) N-NO 23 3 min 4,2 UV-I 694 W/m 6,6 C 15,3 C 25,7 km/h (4 Bft)
04.06.2023 10:51 18,3 C 20,6 C 44 % 1021,5 hPa 0,0 l/m 19,8 km/h (3 Bft) N-NO 17 3 min 4,2 UV-I 700 W/m 5,8 C 14,1 C 27,4 km/h (4 Bft)
04.06.2023 10:54 18,2 C 21,1 C 42 % 1021,5 hPa 0,0 l/m 20,0 km/h (4 Bft) N-NO 27 3 min 4,3 UV-I 706 W/m 5,1 C 13,9 C 29,0 km/h (5 Bft)
04.06.2023 10:57 18,1 C 21,1 C 44 % 1021,5 hPa 0,0 l/m 22,6 km/h (4 Bft) N-NO 24 3 min 4,4 UV-I 711 W/m 5,7 C 13,2 C 30,6 km/h (5 Bft)
04.06.2023 11:00 18,4 C 21,7 C 47 % 1021,5 hPa 0,0 l/m 18,7 km/h (3 Bft) N-NO 26 3 min 4,4 UV-I 717 W/m 6,9 C 14,4 C 27,4 km/h (4 Bft)
04.06.2023 11:03 18,4 C 22,2 C 44 % 1021,6 hPa 0,0 l/m 18,6 km/h (3 Bft) NO 37 3 min 4,5 UV-I 723 W/m 5,9 C 14,4 C 24,1 km/h (4 Bft)
04.06.2023 11:06 18,3 C 22,8 C 45 % 1021,7 hPa 0,0 l/m 20,3 km/h (4 Bft) N-NO 25 3 min 4,5 UV-I 727 W/m 6,2 C 13,9 C 29,0 km/h (5 Bft)
04.06.2023 11:09 18,2 C 22,8 C 43 % 1021,5 hPa 0,0 l/m 17,9 km/h (3 Bft) O 84 3 min 4,6 UV-I 733 W/m 5,4 C 14,3 C 25,7 km/h (4 Bft)
04.06.2023 11:12 18,1 C 22,2 C 42 % 1021,4 hPa 0,0 l/m 19,5 km/h (3 Bft) O-NO 76 3 min 4,6 UV-I 740 W/m 5,0 C 13,9 C 25,7 km/h (4 Bft)
04.06.2023 11:15 18,2 C 22,8 C 42 % 1021,5 hPa 0,0 l/m 16,3 km/h (3 Bft) O-NO 66 3 min 4,7 UV-I 745 W/m 5,1 C 14,7 C 25,7 km/h (4 Bft)
04.06.2023 11:18 18,5 C 23,3 C 46 % 1021,6 hPa 0,0 l/m 18,3 km/h (3 Bft) NO 35 3 min 4,7 UV-I 749 W/m 6,7 C 14,6 C 29,0 km/h (5 Bft)
04.06.2023 11:21 18,7 C 24,4 C 44 % 1021,7 hPa 0,0 l/m 9,0 km/h (2 Bft) O-NO 57 3 min 4,8 UV-I 755 W/m 6,2 C 17,6 C 16,1 km/h (3 Bft)
04.06.2023 11:24 18,8 C 23,9 C 43 % 1021,7 hPa 0,0 l/m 14,3 km/h (3 Bft) NO 35 3 min 4,9 UV-I 760 W/m 6,0 C 16,0 C 24,1 km/h (4 Bft)
04.06.2023 11:27 18,7 C 24,4 C 44 % 1021,7 hPa 0,0 l/m 17,9 km/h (3 Bft) N-NW 347 3 min 4,9 UV-I 765 W/m 6,2 C 15,0 C 24,1 km/h (4 Bft)
04.06.2023 11:30 18,6 C 24,4 C 45 % 1021,8 hPa 0,0 l/m 13,2 km/h (3 Bft) NO 43 3 min 5,0 UV-I 770 W/m 6,4 C 16,1 C 22,5 km/h (4 Bft)
04.06.2023 11:33 18,8 C 24,4 C 43 % 1021,6 hPa 0,0 l/m 17,2 km/h (3 Bft) NO 49 3 min 5,0 UV-I 776 W/m 6,0 C 15,3 C 22,5 km/h (4 Bft)
04.06.2023 11:36 18,8 C 25,0 C 43 % 1021,6 hPa 0,0 l/m 13,3 km/h (3 Bft) SO 138 3 min 5,1 UV-I 780 W/m 6,0 C 16,3 C 22,5 km/h (4 Bft)
04.06.2023 11:39 19,1 C 25,6 C 44 % 1021,7 hPa 0,0 l/m 13,5 km/h (3 Bft) O-NO 66 3 min 5,1 UV-I 785 W/m 6,6 C 16,6 C 22,5 km/h (4 Bft)
04.06.2023 11:42 19,0 C 25,0 C 41 % 1021,8 hPa 0,0 l/m 15,6 km/h (3 Bft) NO 44 3 min 5,2 UV-I 790 W/m 5,4 C 15,9 C 25,7 km/h (4 Bft)
04.06.2023 11:45 18,9 C 25,0 C 43 % 1021,7 hPa 0,0 l/m 14,5 km/h (3 Bft) NO 50 3 min 5,2 UV-I 795 W/m 6,0 C 16,0 C 25,7 km/h (4 Bft)
04.06.2023 11:48 19,0 C 24,4 C 42 % 1021,7 hPa 0,0 l/m 20,0 km/h (4 Bft) O-NO 63 3 min 5,3 UV-I 797 W/m 5,8 C 14,9 C 30,6 km/h (5 Bft)
04.06.2023 11:51 18,7 C 23,9 C 41 % 1021,7 hPa 0,0 l/m 19,2 km/h (3 Bft) NO 53 3 min 5,3 UV-I 804 W/m 5,2 C 14,7 C 29,0 km/h (5 Bft)
04.06.2023 11:54 18,7 C 23,9 C 42 % 1021,7 hPa 0,0 l/m 19,5 km/h (3 Bft) NO 34 3 min 5,4 UV-I 807 W/m 5,5 C 14,6 C 30,6 km/h (5 Bft)
04.06.2023 11:57 18,9 C 24,4 C 45 % 1021,7 hPa 0,0 l/m 14,0 km/h (3 Bft) O 88 3 min 5,4 UV-I 809 W/m 6,7 C 16,2 C 22,5 km/h (4 Bft)
04.06.2023 12:00 19,2 C 25,6 C 40 % 1021,7 hPa 0,0 l/m 14,6 km/h (3 Bft) O-NO 63 3 min 5,5 UV-I 813 W/m 5,3 C 16,4 C 29,0 km/h (5 Bft)
04.06.2023 12:03 19,2 C 25,0 C 43 % 1021,7 hPa 0,0 l/m 15,5 km/h (3 Bft) NO 54 3 min 5,5 UV-I 816 W/m 6,3 C 16,2 C 22,5 km/h (4 Bft)
04.06.2023 12:06 19,3 C 24,4 C 43 % 1021,7 hPa 0,0 l/m 17,7 km/h (3 Bft) NO 40 3 min 5,5 UV-I 820 W/m 6,4 C 15,8 C 29,0 km/h (5 Bft)
04.06.2023 12:09 19,3 C 25,0 C 43 % 1021,6 hPa 0,0 l/m 13,6 km/h (3 Bft) N-NO 17 3 min 5,6 UV-I 825 W/m 6,4 C 16,8 C 25,7 km/h (4 Bft)
04.06.2023 12:12 18,9 C 25,6 C 41 % 1021,6 hPa 0,0 l/m 13,1 km/h (3 Bft) N-NO 22 3 min 5,7 UV-I 832 W/m 5,4 C 16,4 C 27,4 km/h (4 Bft)
04.06.2023 12:15 19,0 C 25,6 C 42 % 1021,6 hPa 0,0 l/m 16,5 km/h (3 Bft) O-NO 59 3 min 5,7 UV-I 835 W/m 5,8 C 15,7 C 25,7 km/h (4 Bft)
04.06.2023 12:18 19,0 C 25,6 C 44 % 1021,7 hPa 0,0 l/m 13,1 km/h (3 Bft) NO 44 3 min 5,7 UV-I 836 W/m 6,5 C 16,6 C 20,9 km/h (4 Bft)
04.06.2023 12:22 19,4 C 26,1 C 45 % 1021,7 hPa 0,0 l/m 18,2 km/h (3 Bft) N-NO 22 4 min 5,8 UV-I 842 W/m 7,2 C 15,8 C 27,4 km/h (4 Bft)
04.06.2023 12:24 19,4 C 26,7 C 43 % 1021,7 hPa 0,0 l/m 20,6 km/h (4 Bft) N-NO 28 2 min 5,8 UV-I 846 W/m 6,5 C 15,3 C 30,6 km/h (5 Bft)
04.06.2023 12:27 19,2 C 26,1 C 43 % 1021,7 hPa 0,0 l/m 15,0 km/h (3 Bft) NO 44 3 min 5,8 UV-I 847 W/m 6,3 C 16,3 C 20,9 km/h (4 Bft)
04.06.2023 12:30 19,3 C 26,1 C 45 % 1021,5 hPa 0,0 l/m 12,2 km/h (2 Bft) N-NO 29 3 min 5,8 UV-I 850 W/m 7,1 C 17,2 C 19,3 km/h (3 Bft)
04.06.2023 12:33 19,6 C 26,1 C 44 % 1021,5 hPa 0,0 l/m 13,2 km/h (3 Bft) NO 37 3 min 5,9 UV-I 854 W/m 7,0 C 17,2 C 20,9 km/h (4 Bft)
04.06.2023 12:36 19,4 C 26,7 C 44 % 1021,6 hPa 0,0 l/m 14,0 km/h (3 Bft) NO 55 3 min 5,9 UV-I 856 W/m 6,8 C 16,8 C 22,5 km/h (4 Bft)
04.06.2023 12:39 19,4 C 26,1 C 45 % 1021,7 hPa 0,0 l/m 11,7 km/h (2 Bft) N-NO 23 3 min 6,0 UV-I 860 W/m 7,2 C 17,4 C 19,3 km/h (3 Bft)
04.06.2023 12:42 19,5 C 26,7 C 44 % 1021,6 hPa 0,0 l/m 13,3 km/h (3 Bft) O-NO 71 3 min 6,0 UV-I 861 W/m 6,9 C 17,1 C 19,3 km/h (3 Bft)
04.06.2023 12:45 19,8 C 27,2 C 47 % 1021,7 hPa 0,0 l/m 15,0 km/h (3 Bft) N-NO 27 3 min 6,0 UV-I 865 W/m 8,2 C 17,0 C 22,5 km/h (4 Bft)
04.06.2023 12:48 19,7 C 27,2 C 43 % 1021,6 hPa 0,0 l/m 16,4 km/h (3 Bft) NO 40 3 min 6,0 UV-I 867 W/m 6,8 C 16,6 C 27,4 km/h (4 Bft)
04.06.2023 12:51 19,7 C 27,8 C 47 % 1021,6 hPa 0,0 l/m 9,7 km/h (2 Bft) NO 38 3 min 6,1 UV-I 868 W/m 8,1 C 18,4 C 16,1 km/h (3 Bft)
04.06.2023 12:54 20,0 C 28,9 C 43 % 1021,5 hPa 0,0 l/m 9,1 km/h (2 Bft) O-NO 64 3 min 6,1 UV-I 870 W/m 7,0 C 18,9 C 19,3 km/h (3 Bft)
04.06.2023 12:57 19,9 C 28,9 C 43 % 1021,6 hPa 0,0 l/m 14,7 km/h (3 Bft) O-NO 65 3 min 6,1 UV-I 874 W/m 6,9 C 17,2 C 22,5 km/h (4 Bft)
04.06.2023 13:00 19,6 C 27,8 C 41 % 1021,5 hPa 0,0 l/m 11,7 km/h (2 Bft) O-NO 77 3 min 6,2 UV-I 875 W/m 6,0 C 17,7 C 20,9 km/h (4 Bft)
04.06.2023 13:03 19,5 C 27,8 C 42 % 1021,7 hPa 0,0 l/m 12,3 km/h (3 Bft) N-NO 30 3 min 6,2 UV-I 876 W/m 6,2 C 17,4 C 19,3 km/h (3 Bft)
04.06.2023 13:06 19,7 C 27,8 C 39 % 1021,5 hPa 0,0 l/m 13,6 km/h (3 Bft) O-NO 65 3 min 6,2 UV-I 878 W/m 5,4 C 17,2 C 20,9 km/h (4 Bft)
04.06.2023 13:09 19,5 C 28,9 C 40 % 1021,5 hPa 0,0 l/m 7,3 km/h (2 Bft) NO 51 3 min 6,2 UV-I 879 W/m 5,5 C 19,1 C 17,7 km/h (3 Bft)
04.06.2023 13:12 19,8 C 28,9 C 44 % 1021,6 hPa 0,0 l/m 14,7 km/h (3 Bft) NO 46 3 min 6,2 UV-I 881 W/m 7,2 C 17,1 C 20,9 km/h (4 Bft)
04.06.2023 13:15 19,7 C 28,3 C 43 % 1021,5 hPa 0,0 l/m 16,2 km/h (3 Bft) O-NO 74 3 min 6,2 UV-I 882 W/m 6,8 C 16,6 C 32,2 km/h (5 Bft)
04.06.2023 13:18 19,7 C 27,8 C 44 % 1021,6 hPa 0,0 l/m 11,7 km/h (2 Bft) N-NO 21 3 min 6,2 UV-I 882 W/m 7,1 C 17,8 C 20,9 km/h (4 Bft)
04.06.2023 13:21 19,9 C 28,9 C 40 % 1021,6 hPa 0,0 l/m 17,7 km/h (3 Bft) N-NO 21 3 min 6,2 UV-I 885 W/m 5,9 C 16,5 C 24,1 km/h (4 Bft)
04.06.2023 13:24 19,9 C 28,3 C 43 % 1021,5 hPa 0,0 l/m 10,0 km/h (2 Bft) O-NO 58 3 min 6,2 UV-I 885 W/m 6,9 C 18,5 C 19,3 km/h (3 Bft)
04.06.2023 13:27 20,1 C 28,9 C 43 % 1021,5 hPa 0,0 l/m 9,9 km/h (2 Bft) N-NO 32 3 min 6,3 UV-I 886 W/m 7,1 C 18,8 C 19,3 km/h (3 Bft)
04.06.2023 13:30 20,1 C 29,4 C 39 % 1021,5 hPa 0,0 l/m 12,1 km/h (2 Bft) O-NO 66 3 min 6,3 UV-I 887 W/m 5,7 C 18,1 C 20,9 km/h (4 Bft)
04.06.2023 13:33 19,8 C 28,9 C 41 % 1021,4 hPa 0,0 l/m 10,0 km/h (2 Bft) O-SO 114 3 min 6,3 UV-I 885 W/m 6,2 C 18,4 C 19,3 km/h (3 Bft)
04.06.2023 13:36 19,7 C 28,3 C 41 % 1021,5 hPa 0,0 l/m 8,2 km/h (2 Bft) O 85 3 min 6,3 UV-I 886 W/m 6,1 C 19,0 C 14,5 km/h (3 Bft)
04.06.2023 13:39 19,9 C 28,3 C 42 % 1021,3 hPa 0,0 l/m 14,5 km/h (3 Bft) O 88 3 min 6,3 UV-I 886 W/m 6,6 C 17,3 C 20,9 km/h (4 Bft)
04.06.2023 13:42 20,2 C 28,9 C 40 % 1021,4 hPa 0,0 l/m 12,2 km/h (2 Bft) O 82 3 min 6,3 UV-I 886 W/m 6,2 C 18,2 C 20,9 km/h (4 Bft)
04.06.2023 13:45 20,1 C 27,2 C 40 % 1021,3 hPa 0,0 l/m 17,1 km/h (3 Bft) O-NO 61 3 min 6,3 UV-I 887 W/m 6,1 C 16,9 C 24,1 km/h (4 Bft)
04.06.2023 13:48 20,0 C 27,8 C 43 % 1021,4 hPa 0,0 l/m 11,6 km/h (2 Bft) O-NO 64 3 min 6,3 UV-I 887 W/m 7,0 C 18,1 C 19,3 km/h (3 Bft)
04.06.2023 13:51 20,2 C 27,8 C 41 % 1021,3 hPa 0,0 l/m 14,0 km/h (3 Bft) NO 42 3 min 6,3 UV-I 888 W/m 6,5 C 17,7 C 22,5 km/h (4 Bft)
04.06.2023 13:54 20,1 C 27,8 C 40 % 1021,3 hPa 0,0 l/m 11,1 km/h (2 Bft) NO 46 3 min 6,3 UV-I 886 W/m 6,1 C 18,4 C 20,9 km/h (4 Bft)
04.06.2023 13:57 20,1 C 28,3 C 41 % 1021,4 hPa 0,0 l/m 7,5 km/h (2 Bft) NO 41 3 min 6,3 UV-I 888 W/m 6,4 C 19,7 C 16,1 km/h (3 Bft)
04.06.2023 14:00 19,9 C 27,2 C 39 % 1021,4 hPa 0,0 l/m 16,8 km/h (3 Bft) O-NO 60 3 min 6,3 UV-I 886 W/m 5,5 C 16,7 C 30,6 km/h (5 Bft)
04.06.2023 14:03 20,1 C 27,8 C 40 % 1021,4 hPa 0,0 l/m 10,5 km/h (2 Bft) O 101 3 min 6,2 UV-I 885 W/m 6,1 C 18,6 C 17,7 km/h (3 Bft)
04.06.2023 14:06 20,3 C 28,9 C 42 % 1021,3 hPa 0,0 l/m 7,5 km/h (2 Bft) O-NO 61 3 min 6,2 UV-I 885 W/m 7,0 C 19,9 C 20,9 km/h (4 Bft)
04.06.2023 14:09 20,3 C 28,3 C 41 % 1021,3 hPa 0,0 l/m 14,7 km/h (3 Bft) N-NO 21 3 min 6,2 UV-I 881 W/m 6,6 C 17,7 C 24,1 km/h (4 Bft)
04.06.2023 14:12 20,3 C 29,4 C 42 % 1021,4 hPa 0,0 l/m 11,4 km/h (2 Bft) N-NW 347 3 min 6,2 UV-I 879 W/m 7,0 C 18,5 C 16,1 km/h (3 Bft)
04.06.2023 14:15 20,3 C 29,4 C 42 % 1021,3 hPa 0,0 l/m 12,8 km/h (3 Bft) NO 38 3 min 6,2 UV-I 880 W/m 7,0 C 18,2 C 22,5 km/h (4 Bft)
04.06.2023 14:18 20,4 C 29,4 C 43 % 1021,3 hPa 0,0 l/m 15,8 km/h (3 Bft) N-NO 28 3 min 6,2 UV-I 878 W/m 7,4 C 17,6 C 30,6 km/h (5 Bft)
04.06.2023 14:21 20,3 C 29,4 C 38 % 1021,3 hPa 0,0 l/m 9,1 km/h (2 Bft) O-NO 57 3 min 6,2 UV-I 878 W/m 5,5 C 19,3 C 17,7 km/h (3 Bft)
04.06.2023 14:24 20,3 C 28,9 C 42 % 1021,3 hPa 0,0 l/m 15,7 km/h (3 Bft) N-NO 33 3 min 6,2 UV-I 875 W/m 7,0 C 17,5 C 22,5 km/h (4 Bft)
04.06.2023 14:27 20,1 C 28,9 C 44 % 1021,2 hPa 0,0 l/m 7,2 km/h (2 Bft) NO 44 3 min 6,1 UV-I 872 W/m 7,5 C 19,8 C 11,3 km/h (2 Bft)
04.06.2023 14:30 20,6 C 30,0 C 44 % 1021,3 hPa 0,0 l/m 12,6 km/h (3 Bft) N-NO 23 3 min 6,1 UV-I 871 W/m 7,9 C 18,6 C 22,5 km/h (4 Bft)
04.06.2023 14:33 20,6 C 29,4 C 42 % 1021,4 hPa 0,0 l/m 12,2 km/h (2 Bft) NO 39 3 min 6,1 UV-I 868 W/m 7,2 C 18,7 C 19,3 km/h (3 Bft)
04.06.2023 14:37 20,6 C 29,4 C 43 % 1021,4 hPa 0,0 l/m 9,5 km/h (2 Bft) N 5 4 min 6,1 UV-I 866 W/m 7,6 C 19,5 C 20,9 km/h (4 Bft)
04.06.2023 14:39 20,5 C 30,0 C 42 % 1021,5 hPa 0,0 l/m 8,7 km/h (2 Bft) N-NO 32 2 min 6,0 UV-I 864 W/m 7,1 C 19,6 C 16,1 km/h (3 Bft)
04.06.2023 14:42 20,7 C 30,0 C 46 % 1021,4 hPa 0,0 l/m 14,1 km/h (3 Bft) NO 42 3 min 6,0 UV-I 864 W/m 8,7 C 18,3 C 20,9 km/h (4 Bft)
04.06.2023 14:45 20,9 C 31,1 C 45 % 1021,3 hPa 0,0 l/m 14,4 km/h (3 Bft) N 355 3 min 6,0 UV-I 862 W/m 8,5 C 18,5 C 20,9 km/h (4 Bft)
04.06.2023 14:48 20,7 C 30,0 C 44 % 1021,4 hPa 0,0 l/m 14,0 km/h (3 Bft) NO 36 3 min 6,0 UV-I 860 W/m 8,0 C 18,3 C 22,5 km/h (4 Bft)
04.06.2023 14:51 20,8 C 30,6 C 42 % 1021,3 hPa 0,0 l/m 5,9 km/h (2 Bft) NO 46 3 min 5,9 UV-I 856 W/m 7,4 C 20,8 C 12,9 km/h (3 Bft)
04.06.2023 14:54 20,8 C 29,4 C 41 % 1021,3 hPa 0,0 l/m 16,2 km/h (3 Bft) NO 43 3 min 5,9 UV-I 854 W/m 7,1 C 18,0 C 29,0 km/h (5 Bft)
04.06.2023 14:57 20,7 C 28,3 C 42 % 1021,3 hPa 0,0 l/m 17,7 km/h (3 Bft) O-NO 63 3 min 5,9 UV-I 851 W/m 7,3 C 17,5 C 24,1 km/h (4 Bft)
04.06.2023 15:00 20,5 C 28,3 C 42 % 1021,3 hPa 0,0 l/m 15,3 km/h (3 Bft) N-NO 30 3 min 5,8 UV-I 847 W/m 7,1 C 17,8 C 25,7 km/h (4 Bft)
04.06.2023 15:03 20,7 C 28,9 C 42 % 1021,3 hPa 0,0 l/m 9,4 km/h (2 Bft) N-NO 26 3 min 5,8 UV-I 843 W/m 7,3 C 19,6 C 16,1 km/h (3 Bft)
04.06.2023 15:06 20,8 C 28,3 C 40 % 1021,2 hPa 0,0 l/m 18,4 km/h (3 Bft) NO 34 3 min 5,7 UV-I 838 W/m 6,7 C 17,5 C 29,0 km/h (5 Bft)
04.06.2023 15:09 20,7 C 27,8 C 39 % 1021,3 hPa 0,0 l/m 14,9 km/h (3 Bft) N-NO 21 3 min 5,7 UV-I 837 W/m 6,2 C 18,1 C 22,5 km/h (4 Bft)
04.06.2023 15:12 20,6 C 27,8 C 40 % 1021,3 hPa 0,0 l/m 11,0 km/h (2 Bft) N-NO 33 3 min 5,6 UV-I 835 W/m 6,5 C 19,0 C 17,7 km/h (3 Bft)
04.06.2023 15:15 20,7 C 29,4 C 42 % 1021,3 hPa 0,0 l/m 8,4 km/h (2 Bft) O 98 3 min 5,6 UV-I 832 W/m 7,3 C 19,9 C 14,5 km/h (3 Bft)
04.06.2023 15:18 20,6 C 28,9 C 40 % 1021,2 hPa 0,0 l/m 11,2 km/h (2 Bft) O-NO 61 3 min 5,6 UV-I 829 W/m 6,5 C 18,9 C 19,3 km/h (3 Bft)
04.06.2023 15:21 20,8 C 27,8 C 39 % 1021,3 hPa 0,0 l/m 17,6 km/h (3 Bft) O-NO 72 3 min 5,6 UV-I 823 W/m 6,3 C 17,7 C 29,0 km/h (5 Bft)
04.06.2023 15:24 20,6 C 28,3 C 43 % 1021,3 hPa 0,0 l/m 9,1 km/h (2 Bft) NO 52 3 min 5,5 UV-I 821 W/m 7,6 C 19,6 C 14,5 km/h (3 Bft)
04.06.2023 15:27 20,9 C 29,4 C 41 % 1021,2 hPa 0,0 l/m 10,3 km/h (2 Bft) NW 305 3 min 5,4 UV-I 817 W/m 7,2 C 19,5 C 17,7 km/h (3 Bft)
04.06.2023 15:30 21,1 C 28,9 C 40 % 1021,3 hPa 0,0 l/m 13,9 km/h (3 Bft) N-NO 18 3 min 5,4 UV-I 814 W/m 7,0 C 18,8 C 24,1 km/h (4 Bft)
04.06.2023 15:33 20,9 C 27,8 C 38 % 1021,3 hPa 0,0 l/m 15,2 km/h (3 Bft) NO 38 3 min 5,4 UV-I 810 W/m 6,0 C 18,3 C 24,1 km/h (4 Bft)
04.06.2023 15:36 20,9 C 28,9 C 41 % 1021,3 hPa 0,0 l/m 11,5 km/h (2 Bft) NO 38 3 min 5,3 UV-I 805 W/m 7,2 C 19,2 C 22,5 km/h (4 Bft)
04.06.2023 15:39 21,1 C 29,4 C 43 % 1021,4 hPa 0,0 l/m 11,1 km/h (2 Bft) N-NO 24 3 min 5,3 UV-I 801 W/m 8,0 C 19,5 C 20,9 km/h (4 Bft)
04.06.2023 15:42 21,1 C 30,0 C 42 % 1021,4 hPa 0,0 l/m 17,2 km/h (3 Bft) NO 43 3 min 5,2 UV-I 797 W/m 7,7 C 18,1 C 22,5 km/h (4 Bft)
04.06.2023 15:45 21,1 C 30,0 C 42 % 1021,3 hPa 0,0 l/m 11,6 km/h (2 Bft) N-NO 22 3 min 5,2 UV-I 794 W/m 7,7 C 19,4 C 17,7 km/h (3 Bft)
04.06.2023 15:48 20,8 C 30,0 C 40 % 1021,3 hPa 0,0 l/m 4,8 km/h (1 Bft) N-NO 28 3 min 5,1 UV-I 788 W/m 6,7 C 20,8 C 12,9 km/h (3 Bft)
04.06.2023 15:51 20,7 C 30,6 C 42 % 1021,2 hPa 0,0 l/m 5,3 km/h (1 Bft) NO 49 3 min 5,1 UV-I 782 W/m 7,3 C 20,7 C 14,5 km/h (3 Bft)
04.06.2023 15:54 21,0 C 30,6 C 40 % 1021,3 hPa 0,0 l/m 10,6 km/h (2 Bft) NO 55 3 min 5,0 UV-I 777 W/m 6,9 C 19,6 C 16,1 km/h (3 Bft)
04.06.2023 15:57 21,4 C 31,7 C 45 % 1021,3 hPa 0,0 l/m 10,0 km/h (2 Bft) NO 46 3 min 5,0 UV-I 773 W/m 9,0 C 20,2 C 20,9 km/h (4 Bft)
04.06.2023 16:00 21,4 C 30,6 C 39 % 1021,3 hPa 0,0 l/m 12,4 km/h (3 Bft) NO 48 3 min 4,9 UV-I 770 W/m 6,9 C 19,5 C 20,9 km/h (4 Bft)
04.06.2023 16:03 20,9 C 29,4 C 39 % 1021,3 hPa 0,0 l/m 9,3 km/h (2 Bft) O-NO 71 3 min 4,9 UV-I 766 W/m 6,4 C 19,9 C 20,9 km/h (4 Bft)
04.06.2023 16:06 21,0 C 30,0 C 40 % 1021,2 hPa 0,0 l/m 13,2 km/h (3 Bft) NO 42 3 min 4,8 UV-I 760 W/m 6,9 C 18,9 C 20,9 km/h (4 Bft)
04.06.2023 16:09 20,8 C 28,9 C 43 % 1021,2 hPa 0,0 l/m 10,3 km/h (2 Bft) NO 51 3 min 4,8 UV-I 753 W/m 7,8 C 19,4 C 22,5 km/h (4 Bft)
04.06.2023 16:12 20,8 C 29,4 C 40 % 1021,2 hPa 0,0 l/m 8,2 km/h (2 Bft) O 80 3 min 4,7 UV-I 747 W/m 6,7 C 20,1 C 12,9 km/h (3 Bft)
04.06.2023 16:15 20,7 C 30,6 C 40 % 1021,1 hPa 0,0 l/m 3,2 km/h (1 Bft) NW 319 3 min 4,6 UV-I 742 W/m 6,6 C 20,7 C 6,4 km/h (2 Bft)
04.06.2023 16:18 21,1 C 30,0 C 42 % 1021,1 hPa 0,0 l/m 13,4 km/h (3 Bft) NO 46 3 min 4,6 UV-I 734 W/m 7,7 C 18,9 C 20,9 km/h (4 Bft)
04.06.2023 16:22 21,3 C 30,0 C 41 % 1021,1 hPa 0,0 l/m 11,4 km/h (2 Bft) O-NO 63 4 min 4,5 UV-I 726 W/m 7,5 C 19,7 C 20,9 km/h (4 Bft)
04.06.2023 16:24 21,2 C 30,6 C 41 % 1021,1 hPa 0,0 l/m 8,5 km/h (2 Bft) NO 55 2 min 4,4 UV-I 720 W/m 7,4 C 20,4 C 12,9 km/h (3 Bft)
04.06.2023 16:27 21,3 C 30,6 C 42 % 1021,1 hPa 0,0 l/m 12,4 km/h (3 Bft) N 5 3 min 4,4 UV-I 716 W/m 7,9 C 19,4 C 22,5 km/h (4 Bft)
04.06.2023 16:30 21,3 C 30,6 C 42 % 1021,1 hPa 0,0 l/m 14,9 km/h (3 Bft) NO 40 3 min 4,3 UV-I 709 W/m 7,9 C 18,8 C 22,5 km/h (4 Bft)
04.06.2023 16:33 21,2 C 29,4 C 41 % 1021,1 hPa 0,0 l/m 17,9 km/h (3 Bft) N-NO 12 3 min 4,2 UV-I 701 W/m 7,4 C 18,1 C 27,4 km/h (4 Bft)
04.06.2023 16:36 21,1 C 29,4 C 39 % 1021,1 hPa 0,0 l/m 13,7 km/h (3 Bft) N-NO 19 3 min 4,1 UV-I 695 W/m 6,6 C 18,9 C 20,9 km/h (4 Bft)
04.06.2023 16:39 20,8 C 29,4 C 39 % 1021,2 hPa 0,0 l/m 9,1 km/h (2 Bft) N 5 3 min 4,1 UV-I 688 W/m 6,3 C 19,8 C 16,1 km/h (3 Bft)
04.06.2023 16:42 21,1 C 28,9 C 42 % 1021,0 hPa 0,0 l/m 15,9 km/h (3 Bft) N-NO 19 3 min 4,0 UV-I 682 W/m 7,7 C 18,4 C 25,7 km/h (4 Bft)
04.06.2023 16:45 21,3 C 28,9 C 39 % 1021,0 hPa 0,0 l/m 10,7 km/h (2 Bft) N-NO 22 3 min 4,0 UV-I 676 W/m 6,8 C 19,9 C 16,1 km/h (3 Bft)
04.06.2023 16:48 21,1 C 29,4 C 40 % 1021,0 hPa 0,0 l/m 10,1 km/h (2 Bft) N-NO 12 3 min 3,9 UV-I 668 W/m 7,0 C 19,8 C 14,5 km/h (3 Bft)
04.06.2023 16:51 21,3 C 30,6 C 42 % 1021,0 hPa 0,0 l/m 10,9 km/h (2 Bft) N 10 3 min 3,8 UV-I 661 W/m 7,9 C 19,8 C 20,9 km/h (4 Bft)
04.06.2023 16:54 21,3 C 29,4 C 40 % 1021,1 hPa 0,0 l/m 14,2 km/h (3 Bft) N-NO 13 3 min 3,8 UV-I 654 W/m 7,1 C 19,0 C 19,3 km/h (3 Bft)
04.06.2023 16:57 21,3 C 28,9 C 40 % 1021,1 hPa 0,0 l/m 14,8 km/h (3 Bft) N 5 3 min 3,7 UV-I 646 W/m 7,1 C 18,9 C 24,1 km/h (4 Bft)
04.06.2023 17:00 21,1 C 30,6 C 39 % 1021,1 hPa 0,0 l/m 10,4 km/h (2 Bft) N 9 3 min 3,7 UV-I 640 W/m 6,6 C 19,7 C 17,7 km/h (3 Bft)
04.06.2023 17:03 20,9 C 28,9 C 38 % 1020,9 hPa 0,0 l/m 15,5 km/h (3 Bft) N-NO 22 3 min 3,6 UV-I 634 W/m 6,0 C 18,2 C 22,5 km/h (4 Bft)
04.06.2023 17:06 21,1 C 28,9 C 39 % 1020,9 hPa 0,0 l/m 13,4 km/h (3 Bft) N-NW 344 3 min 3,5 UV-I 629 W/m 6,6 C 18,9 C 19,3 km/h (3 Bft)
04.06.2023 17:09 20,8 C 29,4 C 38 % 1020,9 hPa 0,0 l/m 12,7 km/h (3 Bft) N-NO 24 3 min 3,4 UV-I 620 W/m 6,0 C 18,8 C 22,5 km/h (4 Bft)
04.06.2023 17:12 20,8 C 29,4 C 38 % 1020,9 hPa 0,0 l/m 12,7 km/h (3 Bft) N 10 3 min 3,4 UV-I 612 W/m 6,0 C 18,8 C 19,3 km/h (3 Bft)
04.06.2023 17:15 20,9 C 29,4 C 41 % 1020,9 hPa 0,0 l/m 12,1 km/h (2 Bft) N-NW 342 3 min 3,3 UV-I 605 W/m 7,2 C 19,0 C 22,5 km/h (4 Bft)
04.06.2023 17:18 20,9 C 28,3 C 40 % 1020,9 hPa 0,0 l/m 16,9 km/h (3 Bft) N 9 3 min 3,3 UV-I 597 W/m 6,8 C 17,9 C 25,7 km/h (4 Bft)
04.06.2023 17:21 20,6 C 28,3 C 39 % 1021,0 hPa 0,0 l/m 20,5 km/h (4 Bft) N 351 3 min 3,2 UV-I 591 W/m 6,2 C 16,9 C 27,4 km/h (4 Bft)
04.06.2023 17:24 20,6 C 27,8 C 40 % 1021,0 hPa 0,0 l/m 11,4 km/h (2 Bft) N 355 3 min 3,2 UV-I 585 W/m 6,5 C 18,9 C 20,9 km/h (4 Bft)
04.06.2023 17:27 20,7 C 28,3 C 38 % 1020,9 hPa 0,0 l/m 8,9 km/h (2 Bft) N 360 3 min 3,1 UV-I 578 W/m 5,9 C 19,8 C 17,7 km/h (3 Bft)
04.06.2023 17:30 20,9 C 28,9 C 40 % 1020,9 hPa 0,0 l/m 9,3 km/h (2 Bft) N-NW 339 3 min 3,1 UV-I 574 W/m 6,8 C 19,9 C 16,1 km/h (3 Bft)
04.06.2023 17:33 21,0 C 27,8 C 38 % 1020,8 hPa 0,0 l/m 14,2 km/h (3 Bft) N 11 3 min 3,0 UV-I 566 W/m 6,1 C 18,6 C 22,5 km/h (4 Bft)
04.06.2023 17:36 20,9 C 27,2 C 41 % 1020,8 hPa 0,0 l/m 14,0 km/h (3 Bft) N-NO 22 3 min 3,0 UV-I 559 W/m 7,2 C 18,6 C 24,1 km/h (4 Bft)
04.06.2023 17:39 20,9 C 27,2 C 38 % 1020,8 hPa 0,0 l/m 14,8 km/h (3 Bft) N-NO 22 3 min 2,9 UV-I 549 W/m 6,0 C 18,4 C 24,1 km/h (4 Bft)
04.06.2023 17:42 20,8 C 26,7 C 39 % 1020,9 hPa 0,0 l/m 17,6 km/h (3 Bft) N 5 3 min 2,8 UV-I 543 W/m 6,3 C 17,7 C 24,1 km/h (4 Bft)
04.06.2023 17:45 20,6 C 26,7 C 38 % 1020,9 hPa 0,0 l/m 15,5 km/h (3 Bft) N-NW 335 3 min 2,8 UV-I 536 W/m 5,8 C 17,9 C 25,7 km/h (4 Bft)
04.06.2023 17:48 20,6 C 26,7 C 40 % 1020,9 hPa 0,0 l/m 15,5 km/h (3 Bft) N-NO 12 3 min 2,7 UV-I 527 W/m 6,5 C 17,9 C 27,4 km/h (4 Bft)
04.06.2023 17:51 20,6 C 26,1 C 37 % 1020,8 hPa 0,0 l/m 15,8 km/h (3 Bft) N-NW 347 3 min 2,6 UV-I 519 W/m 5,4 C 17,8 C 22,5 km/h (4 Bft)
04.06.2023 17:54 20,7 C 26,7 C 37 % 1020,7 hPa 0,0 l/m 15,4 km/h (3 Bft) N 349 3 min 2,6 UV-I 511 W/m 5,5 C 18,0 C 25,7 km/h (4 Bft)
04.06.2023 17:57 20,6 C 26,1 C 36 % 1020,8 hPa 0,0 l/m 13,5 km/h (3 Bft) N-NO 23 3 min 2,5 UV-I 504 W/m 5,0 C 18,3 C 20,9 km/h (4 Bft)
04.06.2023 18:00 20,6 C 26,1 C 38 % 1020,9 hPa 0,0 l/m 16,3 km/h (3 Bft) NO 40 3 min 2,5 UV-I 495 W/m 5,8 C 17,7 C 24,1 km/h (4 Bft)
04.06.2023 18:03 20,6 C 25,6 C 38 % 1020,8 hPa 0,0 l/m 16,1 km/h (3 Bft) N 5 3 min 2,4 UV-I 488 W/m 5,8 C 17,7 C 22,5 km/h (4 Bft)
04.06.2023 18:06 20,6 C 25,0 C 35 % 1020,9 hPa 0,0 l/m 15,0 km/h (3 Bft) NO 41 3 min 2,3 UV-I 480 W/m 4,6 C 18,0 C 25,7 km/h (4 Bft)
04.06.2023 18:09 20,6 C 24,4 C 35 % 1020,8 hPa 0,0 l/m 15,4 km/h (3 Bft) NO 40 3 min 2,3 UV-I 473 W/m 4,6 C 17,9 C 24,1 km/h (4 Bft)
04.06.2023 18:12 20,6 C 25,0 C 39 % 1020,8 hPa 0,0 l/m 10,6 km/h (2 Bft) N-NO 22 3 min 2,2 UV-I 464 W/m 6,2 C 19,1 C 17,7 km/h (3 Bft)
04.06.2023 18:15 20,7 C 25,0 C 37 % 1020,8 hPa 0,0 l/m 12,6 km/h (3 Bft) O-NO 61 3 min 2,2 UV-I 456 W/m 5,5 C 18,7 C 20,9 km/h (4 Bft)
04.06.2023 18:18 20,7 C 24,4 C 35 % 1020,8 hPa 0,0 l/m 14,1 km/h (3 Bft) N-NO 20 3 min 2,1 UV-I 447 W/m 4,7 C 18,3 C 22,5 km/h (4 Bft)
04.06.2023 18:21 20,5 C 23,9 C 35 % 1020,8 hPa 0,0 l/m 16,1 km/h (3 Bft) N-NW 335 3 min 2,0 UV-I 437 W/m 4,5 C 17,6 C 29,0 km/h (5 Bft)
04.06.2023 18:24 20,4 C 23,9 C 38 % 1020,7 hPa 0,0 l/m 12,3 km/h (3 Bft) N-NW 347 3 min 2,0 UV-I 427 W/m 5,6 C 18,4 C 17,7 km/h (3 Bft)
04.06.2023 18:27 20,3 C 23,3 C 39 % 1020,8 hPa 0,0 l/m 13,5 km/h (3 Bft) N-NO 24 3 min 1,9 UV-I 418 W/m 5,9 C 18,0 C 19,3 km/h (3 Bft)
04.06.2023 18:30 20,3 C 22,8 C 38 % 1020,8 hPa 0,0 l/m 10,0 km/h (2 Bft) N-NW 348 3 min 1,9 UV-I 410 W/m 5,5 C 19,0 C 16,1 km/h (3 Bft)
04.06.2023 18:33 20,2 C 21,7 C 37 % 1020,7 hPa 0,0 l/m 19,4 km/h (3 Bft) N-NW 344 3 min 1,8 UV-I 405 W/m 5,0 C 16,6 C 25,7 km/h (4 Bft)
04.06.2023 18:36 20,1 C 21,1 C 39 % 1020,8 hPa 0,0 l/m 13,8 km/h (3 Bft) N 360 3 min 1,8 UV-I 397 W/m 5,7 C 17,7 C 27,4 km/h (4 Bft)
04.06.2023 18:39 20,1 C 20,6 C 38 % 1020,7 hPa 0,0 l/m 12,8 km/h (3 Bft) N 355 3 min 1,7 UV-I 389 W/m 5,3 C 17,9 C 20,9 km/h (4 Bft)
04.06.2023 18:42 20,1 C 20,6 C 39 % 1020,8 hPa 0,0 l/m 16,1 km/h (3 Bft) NO 45 3 min 1,7 UV-I 380 W/m 5,7 C 17,1 C 22,5 km/h (4 Bft)
04.06.2023 18:45 20,2 C 20,0 C 38 % 1020,8 hPa 0,0 l/m 14,3 km/h (3 Bft) N-NO 22 3 min 1,6 UV-I 371 W/m 5,4 C 17,7 C 22,5 km/h (4 Bft)
04.06.2023 18:48 20,1 C 20,0 C 36 % 1020,9 hPa 0,0 l/m 14,9 km/h (3 Bft) N 5 3 min 1,6 UV-I 364 W/m 4,6 C 17,4 C 20,9 km/h (4 Bft)
04.06.2023 18:51 20,1 C 20,0 C 36 % 1020,9 hPa 0,0 l/m 12,7 km/h (3 Bft) N-NO 24 3 min 1,5 UV-I 356 W/m 4,6 C 18,0 C 19,3 km/h (3 Bft)
04.06.2023 18:54 20,0 C 20,0 C 37 % 1020,8 hPa 0,0 l/m 13,3 km/h (3 Bft) N 355 3 min 1,4 UV-I 347 W/m 4,9 C 17,7 C 19,3 km/h (3 Bft)
04.06.2023 18:57 19,8 C 20,0 C 37 % 1020,8 hPa 0,0 l/m 13,3 km/h (3 Bft) N-NW 338 3 min 1,4 UV-I 339 W/m 4,7 C 17,4 C 20,9 km/h (4 Bft)
04.06.2023 19:00 19,7 C 20,0 C 37 % 1020,7 hPa 0,0 l/m 18,1 km/h (3 Bft) N-NW 340 3 min 1,4 UV-I 329 W/m 4,6 C 16,2 C 24,1 km/h (4 Bft)
04.06.2023 19:03 19,7 C 19,4 C 39 % 1020,8 hPa 0,0 l/m 15,3 km/h (3 Bft) N-NW 344 3 min 1,3 UV-I 321 W/m 5,4 C 16,8 C 25,7 km/h (4 Bft)
04.06.2023 19:06 19,7 C 19,4 C 38 % 1020,8 hPa 0,0 l/m 15,6 km/h (3 Bft) N 11 3 min 1,3 UV-I 313 W/m 5,0 C 16,7 C 22,5 km/h (4 Bft)
04.06.2023 19:09 19,5 C 19,4 C 38 % 1020,7 hPa 0,0 l/m 11,8 km/h (2 Bft) N-NW 336 3 min 1,2 UV-I 305 W/m 4,8 C 17,5 C 17,7 km/h (3 Bft)
04.06.2023 19:12 19,4 C 19,4 C 39 % 1020,7 hPa 0,0 l/m 10,7 km/h (2 Bft) N-NO 14 3 min 1,2 UV-I 296 W/m 5,1 C 17,7 C 17,7 km/h (3 Bft)
04.06.2023 19:15 19,4 C 18,9 C 38 % 1020,7 hPa 0,0 l/m 12,9 km/h (3 Bft) N-NO 27 3 min 1,1 UV-I 288 W/m 4,7 C 17,1 C 20,9 km/h (4 Bft)
04.06.2023 19:18 19,4 C 18,9 C 40 % 1020,7 hPa 0,0 l/m 12,2 km/h (2 Bft) N-NO 21 3 min 1,1 UV-I 280 W/m 5,5 C 17,3 C 20,9 km/h (4 Bft)
04.06.2023 19:21 19,4 C 18,9 C 39 % 1020,7 hPa 0,0 l/m 14,5 km/h (3 Bft) N-NO 17 3 min 1,1 UV-I 271 W/m 5,1 C 16,6 C 22,5 km/h (4 Bft)
04.06.2023 19:24 19,3 C 18,3 C 38 % 1020,8 hPa 0,0 l/m 15,7 km/h (3 Bft) N 5 3 min 1,0 UV-I 263 W/m 4,6 C 16,2 C 20,9 km/h (4 Bft)
04.06.2023 19:27 19,2 C 18,3 C 38 % 1020,7 hPa 0,0 l/m 13,9 km/h (3 Bft) N 9 3 min 1,0 UV-I 254 W/m 4,5 C 16,6 C 19,3 km/h (3 Bft)
04.06.2023 19:30 19,2 C 18,3 C 39 % 1020,7 hPa 0,0 l/m 15,2 km/h (3 Bft) N 355 3 min 0,9 UV-I 246 W/m 4,9 C 16,2 C 20,9 km/h (4 Bft)
04.06.2023 19:33 19,1 C 17,8 C 40 % 1020,7 hPa 0,0 l/m 12,1 km/h (2 Bft) N-NW 341 3 min 0,9 UV-I 239 W/m 5,2 C 17,0 C 20,9 km/h (4 Bft)
04.06.2023 19:36 19,1 C 17,8 C 39 % 1020,7 hPa 0,0 l/m 15,0 km/h (3 Bft) N 5 3 min 0,8 UV-I 231 W/m 4,8 C 16,2 C 27,4 km/h (4 Bft)
04.06.2023 19:39 19,1 C 17,8 C 39 % 1020,6 hPa 0,0 l/m 21,2 km/h (4 Bft) N-NW 348 3 min 0,8 UV-I 223 W/m 4,8 C 14,8 C 29,0 km/h (5 Bft)
04.06.2023 19:42 19,0 C 17,2 C 39 % 1020,6 hPa 0,0 l/m 14,8 km/h (3 Bft) N 5 3 min 0,8 UV-I 215 W/m 4,7 C 16,1 C 25,7 km/h (4 Bft)
04.06.2023 19:45 18,9 C 17,2 C 41 % 1020,7 hPa 0,0 l/m 9,5 km/h (2 Bft) N-NW 342 3 min 0,7 UV-I 207 W/m 5,4 C 17,6 C 16,1 km/h (3 Bft)
04.06.2023 19:48 18,8 C 17,2 C 40 % 1020,7 hPa 0,0 l/m 9,4 km/h (2 Bft) N-NO 22 3 min 0,7 UV-I 199 W/m 4,9 C 17,5 C 16,1 km/h (3 Bft)
04.06.2023 19:51 18,7 C 16,7 C 42 % 1020,8 hPa 0,0 l/m 10,5 km/h (2 Bft) N 350 3 min 0,7 UV-I 189 W/m 5,5 C 17,0 C 20,9 km/h (4 Bft)
04.06.2023 19:54 18,7 C 16,7 C 41 % 1020,8 hPa 0,0 l/m 14,8 km/h (3 Bft) N-NO 17 3 min 0,6 UV-I 180 W/m 5,2 C 15,7 C 22,5 km/h (4 Bft)
04.06.2023 19:57 18,7 C 16,7 C 41 % 1020,7 hPa 0,0 l/m 15,1 km/h (3 Bft) N 5 3 min 0,6 UV-I 171 W/m 5,2 C 15,6 C 22,5 km/h (4 Bft)
04.06.2023 20:00 18,6 C 16,7 C 44 % 1020,7 hPa 0,0 l/m 14,3 km/h (3 Bft) N-NW 344 3 min 0,6 UV-I 160 W/m 6,1 C 15,7 C 20,9 km/h (4 Bft)
04.06.2023 20:03 18,4 C 16,1 C 46 % 1020,8 hPa 0,0 l/m 14,8 km/h (3 Bft) N-NW 347 3 min 0,5 UV-I 152 W/m 6,6 C 15,4 C 24,1 km/h (4 Bft)
04.06.2023 20:06 18,3 C 16,1 C 46 % 1020,8 hPa 0,0 l/m 15,3 km/h (3 Bft) N-NW 336 3 min 0,5 UV-I 143 W/m 6,5 C 15,1 C 22,5 km/h (4 Bft)
04.06.2023 20:09 18,3 C 16,1 C 47 % 1020,8 hPa 0,0 l/m 11,6 km/h (2 Bft) N-NW 347 3 min 0,4 UV-I 133 W/m 6,8 C 16,2 C 19,3 km/h (3 Bft)
04.06.2023 20:12 18,2 C 16,1 C 47 % 1020,8 hPa 0,0 l/m 13,3 km/h (3 Bft) N-NW 342 3 min 0,0 UV-I 124 W/m 6,7 C 15,6 C 20,9 km/h (4 Bft)
04.06.2023 20:15 18,1 C 15,6 C 48 % 1020,8 hPa 0,0 l/m 13,5 km/h (3 Bft) N-NW 348 3 min 0,0 UV-I 116 W/m 6,9 C 15,4 C 24,1 km/h (4 Bft)
04.06.2023 20:18 18,0 C 15,6 C 47 % 1020,9 hPa 0,0 l/m 15,8 km/h (3 Bft) N 360 3 min 0,0 UV-I 107 W/m 6,5 C 14,6 C 22,5 km/h (4 Bft)
04.06.2023 20:21 17,9 C 15,6 C 48 % 1020,8 hPa 0,0 l/m 14,3 km/h (3 Bft) N 11 3 min 0,0 UV-I 99 W/m 6,7 C 14,9 C 24,1 km/h (4 Bft)
04.06.2023 20:24 17,8 C 15,6 C 48 % 1020,9 hPa 0,0 l/m 12,6 km/h (3 Bft) N 351 3 min 0,0 UV-I 91 W/m 6,6 C 15,3 C 20,9 km/h (4 Bft)
04.06.2023 20:27 17,7 C 15,0 C 49 % 1020,9 hPa 0,0 l/m 9,2 km/h (2 Bft) N 9 0 min 0,0 UV-I 77 W/m 6,9 C 16,4 C 16,1 km/h (3 Bft)
04.06.2023 20:30 17,5 C 15,0 C 50 % 1021,0 hPa 0,0 l/m 8,1 km/h (2 Bft) N 350 0 min 0,0 UV-I 41 W/m 7,0 C 16,7 C 14,5 km/h (3 Bft)
04.06.2023 20:31 17,4 C 15,0 C 50 % 1020,9 hPa 0,0 l/m 16,1 km/h (3 Bft) N 360 0 min 0,0 UV-I 35 W/m 6,9 C 13,8 C 19,3 km/h (3 Bft)
04.06.2023 20:32 17,4 C 15,0 C 50 % 1020,9 hPa 0,0 l/m 12,9 km/h (3 Bft) N 360 0 min 0,0 UV-I 35 W/m 6,9 C 14,7 C 17,7 km/h (3 Bft)
04.06.2023 20:33 17,3 C 15,0 C 50 % 1020,9 hPa 0,0 l/m 16,1 km/h (3 Bft) N 360 0 min 0,0 UV-I 33 W/m 6,8 C 13,7 C 24,1 km/h (4 Bft)
04.06.2023 20:36 17,4 C 15,0 C 50 % 1020,9 hPa 0,0 l/m 10,7 km/h (2 Bft) N-NO 13 0 min 0,0 UV-I 33 W/m 6,9 C 15,5 C 16,1 km/h (3 Bft)
04.06.2023 20:39 17,1 C 14,4 C 53 % 1021,0 hPa 0,0 l/m 6,4 km/h (2 Bft) N 360 0 min 0,0 UV-I 32 W/m 7,4 C 17,1 C 11,3 km/h (2 Bft)
04.06.2023 20:42 16,8 C 13,9 C 52 % 1021,0 hPa 0,0 l/m 9,3 km/h (2 Bft) N 9 0 min 0,0 UV-I 30 W/m 6,9 C 15,4 C 16,1 km/h (3 Bft)
04.06.2023 20:45 16,7 C 13,3 C 53 % 1021,0 hPa 0,0 l/m 6,3 km/h (2 Bft) N 5 0 min 0,0 UV-I 29 W/m 7,1 C 16,7 C 9,7 km/h (2 Bft)
04.06.2023 20:48 16,4 C 13,3 C 54 % 1021,0 hPa 0,0 l/m 7,5 km/h (2 Bft) N-NO 32 0 min 0,0 UV-I 28 W/m 7,1 C 15,8 C 14,5 km/h (3 Bft)
04.06.2023 20:52 16,7 C 13,3 C 53 % 1021,0 hPa 0,0 l/m 11,4 km/h (2 Bft) N-NO 22 0 min 0,0 UV-I 26 W/m 7,1 C 14,4 C 20,9 km/h (4 Bft)
04.06.2023 20:54 16,7 C 13,3 C 53 % 1021,0 hPa 0,0 l/m 13,3 km/h (3 Bft) N 355 0 min 0,0 UV-I 25 W/m 7,1 C 13,8 C 19,3 km/h (3 Bft)
04.06.2023 20:57 16,8 C 13,3 C 52 % 1021,1 hPa 0,0 l/m 13,0 km/h (3 Bft) N 355 0 min 0,0 UV-I 24 W/m 6,9 C 14,0 C 20,9 km/h (4 Bft)
04.06.2023 21:00 16,8 C 13,9 C 52 % 1021,0 hPa 0,0 l/m 12,3 km/h (3 Bft) N 5 0 min 0,0 UV-I 22 W/m 6,9 C 14,2 C 22,5 km/h (4 Bft)
04.06.2023 21:03 16,6 C 13,3 C 53 % 1021,1 hPa 0,0 l/m 10,9 km/h (2 Bft) N 355 0 min 0,0 UV-I 21 W/m 7,0 C 14,5 C 16,1 km/h (3 Bft)
04.06.2023 21:06 16,4 C 13,3 C 53 % 1021,1 hPa 0,0 l/m 11,8 km/h (2 Bft) N 350 0 min 0,0 UV-I 19 W/m 6,8 C 14,0 C 16,1 km/h (3 Bft)
04.06.2023 21:09 16,4 C 13,3 C 53 % 1021,0 hPa 0,0 l/m 11,7 km/h (2 Bft) N 355 0 min 0,0 UV-I 18 W/m 6,8 C 14,0 C 16,1 km/h (3 Bft)
04.06.2023 21:12 16,4 C 13,3 C 53 % 1021,0 hPa 0,0 l/m 11,5 km/h (2 Bft) N-NW 344 0 min 0,0 UV-I 17 W/m 6,8 C 14,1 C 17,7 km/h (3 Bft)
04.06.2023 21:15 16,3 C 13,3 C 53 % 1021,0 hPa 0,0 l/m 13,3 km/h (3 Bft) N 350 0 min 0,0 UV-I 15 W/m 6,7 C 13,3 C 17,7 km/h (3 Bft)
04.06.2023 21:18 16,3 C 13,3 C 53 % 1021,1 hPa 0,0 l/m 13,8 km/h (3 Bft) N 5 0 min 0,0 UV-I 13 W/m 6,7 C 13,1 C 19,3 km/h (3 Bft)
04.06.2023 21:21 16,2 C 13,3 C 53 % 1021,1 hPa 0,0 l/m 11,1 km/h (2 Bft) N 355 0 min 0,0 UV-I 12 W/m 6,6 C 14,0 C 16,1 km/h (3 Bft)
04.06.2023 21:24 15,9 C 12,8 C 54 % 1021,1 hPa 0,0 l/m 9,3 km/h (2 Bft) N-NW 346 0 min 0,0 UV-I 11 W/m 6,6 C 14,4 C 14,5 km/h (3 Bft)
04.06.2023 21:27 15,8 C 12,8 C 54 % 1021,1 hPa 0,0 l/m 11,0 km/h (2 Bft) N 360 0 min 0,0 UV-I 9 W/m 6,5 C 13,6 C 16,1 km/h (3 Bft)
04.06.2023 21:30 15,7 C 12,8 C 54 % 1021,1 hPa 0,0 l/m 11,4 km/h (2 Bft) N-NW 336 0 min 0,0 UV-I 8 W/m 6,4 C 13,3 C 16,1 km/h (3 Bft)
04.06.2023 21:33 15,7 C 12,8 C 54 % 1021,0 hPa 0,0 l/m 10,7 km/h (2 Bft) N-NW 348 0 min 0,0 UV-I 6 W/m 6,4 C 13,6 C 17,7 km/h (3 Bft)
04.06.2023 21:36 15,7 C 12,8 C 54 % 1021,2 hPa 0,0 l/m 9,9 km/h (2 Bft) N-NW 338 0 min 0,0 UV-I 5 W/m 6,4 C 13,9 C 16,1 km/h (3 Bft)
04.06.2023 21:39 15,6 C 12,2 C 54 % 1021,2 hPa 0,0 l/m 9,2 km/h (2 Bft) N-NW 347 0 min 0,0 UV-I 0 W/m 6,3 C 14,1 C 17,7 km/h (3 Bft)
04.06.2023 21:42 15,4 C 12,2 C 55 % 1021,1 hPa 0,0 l/m 8,7 km/h (2 Bft) N-NW 343 0 min 0,0 UV-I 0 W/m 6,4 C 14,2 C 14,5 km/h (3 Bft)
04.06.2023 21:45 15,3 C 11,7 C 55 % 1021,1 hPa 0,0 l/m 9,7 km/h (2 Bft) N 5 0 min 0,0 UV-I 0 W/m 6,3 C 13,6 C 14,5 km/h (3 Bft)
04.06.2023 21:48 15,2 C 11,1 C 55 % 1021,2 hPa 0,0 l/m 8,2 km/h (2 Bft) N-NW 337 0 min 0,0 UV-I 0 W/m 6,2 C 14,2 C 14,5 km/h (3 Bft)
04.06.2023 21:51 15,1 C 11,1 C 55 % 1021,3 hPa 0,0 l/m 7,6 km/h (2 Bft) N-NW 336 0 min 0,0 UV-I 0 W/m 6,1 C 14,4 C 14,5 km/h (3 Bft)
04.06.2023 21:54 15,0 C 11,1 C 56 % 1021,2 hPa 0,0 l/m 8,1 km/h (2 Bft) N-NW 338 0 min 0,0 UV-I 0 W/m 6,3 C 14,0 C 12,9 km/h (3 Bft)
04.06.2023 21:57 14,9 C 11,1 C 56 % 1021,3 hPa 0,0 l/m 8,2 km/h (2 Bft) N-NW 333 0 min 0,0 UV-I 0 W/m 6,2 C 13,9 C 16,1 km/h (3 Bft)
04.06.2023 22:00 14,8 C 11,1 C 56 % 1021,4 hPa 0,0 l/m 7,2 km/h (2 Bft) N-NW 338 0 min 0,0 UV-I 0 W/m 6,1 C 14,3 C 12,9 km/h (3 Bft)
04.06.2023 22:03 14,7 C 11,1 C 56 % 1021,4 hPa 0,0 l/m 6,9 km/h (2 Bft) N 351 0 min 0,0 UV-I 0 W/m 6,0 C 14,4 C 12,9 km/h (3 Bft)
04.06.2023 22:06 14,6 C 10,6 C 57 % 1021,5 hPa 0,0 l/m 6,2 km/h (2 Bft) N 351 0 min 0,0 UV-I 0 W/m 6,2 C 14,6 C 9,7 km/h (2 Bft)
04.06.2023 22:09 14,5 C 10,0 C 57 % 1021,6 hPa 0,0 l/m 5,2 km/h (1 Bft) N-NW 348 0 min 0,0 UV-I 0 W/m 6,1 C 14,5 C 8,0 km/h (2 Bft)
04.06.2023 22:12 14,3 C 10,0 C 58 % 1021,5 hPa 0,0 l/m 5,2 km/h (1 Bft) N-NW 346 0 min 0,0 UV-I 0 W/m 6,2 C 14,3 C 8,0 km/h (2 Bft)
04.06.2023 22:15 14,2 C 9,4 C 58 % 1021,5 hPa 0,0 l/m 4,0 km/h (1 Bft) N 10 0 min 0,0 UV-I 0 W/m 6,1 C 14,2 C 6,4 km/h (2 Bft)
04.06.2023 22:18 14,1 C 9,4 C 58 % 1021,6 hPa 0,0 l/m 3,5 km/h (1 Bft) N 10 0 min 0,0 UV-I 0 W/m 6,0 C 14,1 C 4,8 km/h (1 Bft)
04.06.2023 22:21 13,8 C 8,9 C 59 % 1021,7 hPa 0,0 l/m 4,3 km/h (1 Bft) N 5 0 min 0,0 UV-I 0 W/m 5,9 C 13,8 C 6,4 km/h (2 Bft)
04.06.2023 22:24 13,7 C 8,9 C 60 % 1021,7 hPa 0,0 l/m 1,8 km/h (1 Bft) N 5 0 min 0,0 UV-I 0 W/m 6,1 C 13,7 C 4,8 km/h (1 Bft)
04.06.2023 22:27 13,6 C 8,9 C 60 % 1021,7 hPa 0,0 l/m 3,6 km/h (1 Bft) N 349 0 min 0,0 UV-I 0 W/m 6,0 C 13,6 C 8,0 km/h (2 Bft)
04.06.2023 22:30 13,6 C 8,9 C 60 % 1021,7 hPa 0,0 l/m 6,1 km/h (2 Bft) N-NW 348 0 min 0,0 UV-I 0 W/m 6,0 C 13,6 C 12,9 km/h (3 Bft)
04.06.2023 22:33 13,6 C 8,9 C 60 % 1021,7 hPa 0,0 l/m 4,6 km/h (1 Bft) N-NW 346 0 min 0,0 UV-I 0 W/m 6,0 C 13,6 C 8,0 km/h (2 Bft)
04.06.2023 22:36 13,6 C 8,9 C 60 % 1021,7 hPa 0,0 l/m 4,8 km/h (1 Bft) N-NW 346 0 min 0,0 UV-I 0 W/m 6,0 C 13,6 C 8,0 km/h (2 Bft)
04.06.2023 22:39 13,5 C 8,9 C 60 % 1021,7 hPa 0,0 l/m 4,9 km/h (1 Bft) N 360 0 min 0,0 UV-I 0 W/m 5,9 C 13,5 C 8,0 km/h (2 Bft)
04.06.2023 22:42 13,3 C 8,3 C 61 % 1021,7 hPa 0,0 l/m 2,5 km/h (1 Bft) N 360 0 min 0,0 UV-I 0 W/m 5,9 C 13,3 C 4,8 km/h (1 Bft)
04.06.2023 22:45 12,7 C 8,3 C 63 % 1021,7 hPa 0,0 l/m 1,2 km/h (1 Bft) N 360 0 min 0,0 UV-I 0 W/m 5,8 C 12,7 C 3,2 km/h (1 Bft)
04.06.2023 22:48 12,3 C 7,8 C 65 % 1021,8 hPa 0,0 l/m 0,4 km/h (0 Bft) N 360 0 min 0,0 UV-I 0 W/m 5,9 C 12,3 C 3,2 km/h (1 Bft)
04.06.2023 22:51 12,4 C 7,8 C 64 % 1021,7 hPa 0,0 l/m 1,1 km/h (1 Bft) N 360 0 min 0,0 UV-I 0 W/m 5,8 C 12,4 C 3,2 km/h (1 Bft)
04.06.2023 22:54 12,4 C 8,3 C 64 % 1021,7 hPa 0,0 l/m 3,3 km/h (1 Bft) N 350 0 min 0,0 UV-I 0 W/m 5,8 C 12,4 C 8,0 km/h (2 Bft)
04.06.2023 22:57 12,4 C 8,3 C 64 % 1021,7 hPa 0,0 l/m 5,6 km/h (1 Bft) N 355 0 min 0,0 UV-I 0 W/m 5,8 C 12,4 C 8,0 km/h (2 Bft)
04.06.2023 23:00 12,6 C 7,8 C 64 % 1021,8 hPa 0,0 l/m 5,0 km/h (1 Bft) N 355 0 min 0,0 UV-I 0 W/m 6,0 C 12,6 C 8,0 km/h (2 Bft)
04.06.2023 23:03 12,1 C 7,8 C 65 % 1021,7 hPa 0,0 l/m 2,1 km/h (1 Bft) N 355 0 min 0,0 UV-I 0 W/m 5,7 C 12,1 C 4,8 km/h (1 Bft)
04.06.2023 23:06 11,9 C 7,8 C 66 % 1021,8 hPa 0,0 l/m 1,1 km/h (1 Bft) N 355 0 min 0,0 UV-I 0 W/m 5,8 C 11,9 C 3,2 km/h (1 Bft)
04.06.2023 23:09 11,7 C 7,8 C 67 % 1021,9 hPa 0,0 l/m 0,7 km/h (0 Bft) N 355 0 min 0,0 UV-I 0 W/m 5,8 C 11,7 C 1,6 km/h (1 Bft)
04.06.2023 23:12 11,6 C 7,8 C 67 % 1021,9 hPa 0,0 l/m 0,5 km/h (0 Bft) N 355 0 min 0,0 UV-I 0 W/m 5,7 C 11,6 C 1,6 km/h (1 Bft)
04.06.2023 23:15 11,7 C 7,8 C 67 % 1021,9 hPa 0,0 l/m 0,2 km/h (0 Bft) N 355 0 min 0,0 UV-I 0 W/m 5,8 C 11,7 C 1,6 km/h (1 Bft)
04.06.2023 23:18 11,7 C 7,8 C 67 % 1021,9 hPa 0,0 l/m 0,4 km/h (0 Bft) N 355 0 min 0,0 UV-I 0 W/m 5,8 C 11,7 C 1,6 km/h (1 Bft)
04.06.2023 23:21 11,4 C 7,2 C 68 % 1021,8 hPa 0,0 l/m 0,2 km/h (0 Bft) N 355 0 min 0,0 UV-I 0 W/m 5,7 C 11,4 C 1,6 km/h (1 Bft)
04.06.2023 23:24 11,4 C 7,2 C 68 % 1021,9 hPa 0,0 l/m 0,0 km/h (0 Bft) N 355 0 min 0,0 UV-I 0 W/m 5,7 C 11,4 C 1,6 km/h (1 Bft)
04.06.2023 23:27 11,4 C 7,2 C 68 % 1021,9 hPa 0,0 l/m 0,1 km/h (0 Bft) N 355 0 min 0,0 UV-I 0 W/m 5,7 C 11,4 C 1,6 km/h (1 Bft)
04.06.2023 23:30 11,4 C 7,2 C 67 % 1021,9 hPa 0,0 l/m 0,0 km/h (0 Bft) N 355 0 min 0,0 UV-I 0 W/m 5,5 C 11,4 C 0,0 km/h (0 Bft)
04.06.2023 23:33 11,3 C 6,7 C 68 % 1021,9 hPa 0,0 l/m 0,0 km/h (0 Bft) N 355 0 min 0,0 UV-I 0 W/m 5,6 C 11,3 C 1,6 km/h (1 Bft)
04.06.2023 23:36 11,4 C 7,2 C 68 % 1022,0 hPa 0,0 l/m 1,2 km/h (1 Bft) N 355 0 min 0,0 UV-I 0 W/m 5,7 C 11,4 C 4,8 km/h (1 Bft)
04.06.2023 23:39 11,6 C 6,7 C 67 % 1021,9 hPa 0,0 l/m 0,0 km/h (0 Bft) N 355 0 min 0,0 UV-I 0 W/m 5,7 C 11,6 C 0,0 km/h (0 Bft)
04.06.2023 23:42 11,8 C 6,7 C 66 % 1021,8 hPa 0,0 l/m 0,0 km/h (0 Bft) N 355 0 min 0,0 UV-I 0 W/m 5,7 C 11,8 C 0,0 km/h (0 Bft)
04.06.2023 23:45 11,8 C 6,7 C 66 % 1022,0 hPa 0,0 l/m 0,0 km/h (0 Bft) N 355 0 min 0,0 UV-I 0 W/m 5,7 C 11,8 C 0,0 km/h (0 Bft)
04.06.2023 23:48 12,1 C 7,2 C 65 % 1021,8 hPa 0,0 l/m 0,0 km/h (0 Bft) N 355 0 min 0,0 UV-I 0 W/m 5,7 C 12,1 C 0,0 km/h (0 Bft)
04.06.2023 23:51 12,1 C 7,2 C 65 % 1021,8 hPa 0,0 l/m 0,2 km/h (0 Bft) N 355 0 min 0,0 UV-I 0 W/m 5,7 C 12,1 C 1,6 km/h (1 Bft)
04.06.2023 23:54 12,4 C 7,2 C 64 % 1021,7 hPa 0,0 l/m 1,5 km/h (1 Bft) N 355 0 min 0,0 UV-I 0 W/m 5,8 C 12,4 C 6,4 km/h (2 Bft)
04.06.2023 23:57 12,7 C 7,8 C 62 % 1021,7 hPa 0,0 l/m 3,2 km/h (1 Bft) N 355 0 min 0,0 UV-I 0 W/m 5,6 C 12,7 C 4,8 km/h (1 Bft)
_ Min-Zeit 05:51 05:06 18:06 03:57 - 00:51 - - - - - 05:39 05:51 00:51
Minimum _ 2,7 C 1,1 C 35 % 1020,6 hPa - 0,0 km/h (0 Bft) - - - - - 0,7 C 2,7 C 0,0 km/h (0 Bft)
_ Max-Zeit 16:00 15:57 05:24 23:36 00:00 10:57 - - 12:22 13:27 13:51 15:57 14:51 10:39
Maximum _ 21,5 C 31,7 C 87 % 1022,0 hPa 0,0 l/m 22,6 km/h
N-NO (4 Bft)
- - 4 min 6,3 UV-I 888 W/m 9,0 C 20,8 C 32,2 km/h
N-NO (5 Bft)
Durchschnitt _ 13,9 C 15,0 C 58 % 1021,2 hPa #0,0 l/m 7,6 km/h (2 Bft) N-NO - #13:03 h 3,6 UV-I 488 W/m 5,1 C 12,6 C 12,4 km/h (3 Bft)